GFSCGP_prec_cloud_003.txt.gz
Cloud_Cover
100 97 100 100 6 5 5 5 0 5 3 3 100 100 100 60 3 0 0 0 0 0 0 3 2 4 29 83 55 7 5 5 48 58 17 28 80 98 16 18 5 5 5 6
58 100 100 100 97 9 2 1 2 3 5 0 11 100 100 100 100 100 13 1 0 0 0 0 0 0 0 3 5 5 1 0 35 80 7 40 5 5 20 18 5 20 39 62
92 52 97 100 95 40 15 5 5 4 2 5 4 78 100 98 24 10 95 77 30 2 0 0 0 0 0 0 0 0 0 0 5 5 52 15 63 22 15 5 5 5 5 5
22 100 36 5 7 98 5 80 4 4 5 1 9 38 100 100 30 86 15 97 18 0 0 0 0 0 0 0 0 4 2 0 0 3 5 53 9 5 5 5 1 5 8 10
79 6 5 6 49 5 5 6 5 5 5 6 97 2 100 100 100 100 100 25 20 100 98 6 1 1 0 0 4 3 0 4 5 5 45 44 6 7 7 5 5 5 5 5
55 4 42 43 96 100 100 70 50 52 44 13 20 4 99 100 100 100 100 100 85 76 100 100 100 88 17 21 20 5 6 33 99 100 100 100 100 97 91 92 80 91 97 86
97 46 87 89 17 18 78 6 12 4 5 16 89 6 100 100 100 100 100 100 100 100 97 48 95 100 100 80 43 59 77 97 100 100 96 94 100 100 96 13 5 5 5 6
100 100 100 88 77 86 96 75 5 33 9 51 40 58 100 100 100 100 100 100 100 100 100 100 97 6 5 5 8 8 18 83 96 100 71 54 93 64 42 5 5 5 5 2
100 30 73 100 100 100 100 100 100 100 6 3 92 92 100 100 100 100 100 100 100 100 100 100 100 100 5 27 5 3 5 5 23 39 88 59 20 12 19 52 5 4 3 5
90 93 40 42 81 55 83 99 100 100 100 10 48 45 100 100 100 100 100 100 100 100 100 100 100 74 100 36 35 6 3 5 40 33 61 99 100 57 49 38 61 5 5 42
100 100 23 100 100 100 100 100 100 100 100 87 24 47 100 100 100 100 100 100 90 36 30 56 100 58 95 94 23 4 44 5 4 11 59 37 100 95 43 35 36 15 19 5
100 100 98 100 100 100 100 100 100 100 100 100 100 74 100 100 100 100 100 100 100 100 100 99 98 87 100 44 99 10 7 0 2 6 30 100 100 98 98 67 34 53 95 6
100 100 100 80 30 91 100 100 100 100 100 100 100 71 94 100 100 100 100 100 16 81 89 12 96 92 100 97 53 62 5 69 7 0 4 10 55 100 92 93 100 52 100 44
100 100 100 100 100 100 100 100 100 100 100 73 93 21 100 100 100 100 100 91 100 100 100 100 100 100 100 99 59 8 81 10 52 63 53 32 98 94 100 100 86 50 92 12
100 100 100 100 100 100 100 100 100 100 98 100 83 100 100 100 100 100 75 56 100 100 100 100 100 100 97 11 12 7 100 100 30 83 98 100 100 100 100 100 99 91 97 82
100 100 100 100 100 100 100 100 100 100 100 100 100 100 5 100 100 100 100 100 100 100 100 100 100 100 100 14 5 5 2 61 100 5 33 95 100 100 100 100 100 99 79 44
100 100 100 100 100 100 100 100 100 100 100 100 100 100 100 100 100 100 100 100 100 100 100 100 100 100 94 5 6 5 1 0 4 7 96 100 100 99 91 100 99 94 98 100
100 100 100 100 100 100 78 94 100 100 100 100 100 100 100 100 100 100 100 100 100 100 100 100 100 100 100 100 100 100 98 91 71 90 98 100 100 100 100 100 97 80 100 100
100 100 100 100 100 100 80 14 36 42 21 85 100 89 100 100 100 100 100 100 100 100 100 100 100 100 100 100 100 100 100 100 100 100 100 100 100 100 100 100 100 100 100 100
66 84 100 99 100 77 0 6 84 100 100 100 100 100 100 58 97 67 94 100 100 100 100 100 100 100 100 100 100 100 100 100 100 100 100 100 100 100 100 100 100 100 100 100
4 42 99 100 100 100 100 100 93 100 100 100 100 100 100 100 100 100 100 96 56 44 93 99 100 100 99 92 89 96 100 100 100 100 100 100 100 100 100 100 100 100 100 100
42 90 8 4 46 97 55 81 91 100 100 100 100 100 100 100 100 100 92 100 100 100 45 76 100 51 5 5 32 87 100 100 98 91 99 100 100 100 98 72 99 89 100 100
88 100 100 100 84 16 58 100 100 100 100 78 100 100 100 100 100 97 100 100 100 100 100 100 100 100 100 91 9 100 100 100 100 100 85 100 100 100 77 94 100 100 100 100
0 2 98 100 33 68 22 100 100 36 57 93 56 90 83 89 100 100 100 100 100 100 100 100 100 100 100 100 100 98 99 100 100 66 94 100 100 88 99 100 100 100 100 100
1 0 0 0 0 0 64 100 100 100 100 100 78 100 100 100 100 100 100 100 100 100 100 100 100 100 94 100 100 100 100 100 100 100 100 100 100 100 100 100 100 100 100 100
0 0 0 0 0 0 0 0 6 22 92 100 100 100 100 100 100 100 100 100 100 100 100 100 100 100 100 100 100 100 100 100 100 100 100 100 100 100 100 100 100 100 100 100

GFSCGP_prec_cloud_006.txt.gz
Cloud_Cover
9 23 8 94 5 5 5 0 0 5 2 0 0 60 100 100 100 5 0 0 0 0 0 0 1 0 0 3 5 1 5 5 5 5 5 5 5 5 5 5 5 5 8 5
5 37 47 5 21 4 5 5 0 3 2 1 1 12 100 100 100 100 0 0 0 0 0 0 0 0 0 0 2 5 5 5 4 1 4 18 10 20 5 6 6 20 42 36
49 31 98 25 20 16 4 3 5 4 3 5 5 72 70 100 100 100 85 0 0 0 0 0 0 0 0 0 0 5 5 5 5 4 5 5 5 6 8 6 70 43 87 99
100 100 55 43 54 96 100 99 39 6 5 21 11 28 100 100 100 100 96 96 40 0 0 0 0 0 0 0 0 0 0 0 0 0 0 1 4 19 30 5 5 9 20 49
99 29 6 5 18 5 9 98 99 100 43 70 24 26 100 100 100 100 100 100 100 62 5 1 0 0 0 0 0 0 0 0 0 0 0 2 5 6 5 23 72 90 90 90
8 24 98 89 10 5 5 78 39 100 89 100 100 100 94 100 100 100 100 100 98 100 100 94 60 13 1 0 0 0 0 0 0 0 0 1 5 5 33 62 64 9 1 3
51 67 51 15 23 6 5 5 11 11 7 100 96 92 100 100 76 100 100 100 100 100 97 100 100 100 100 94 7 1 0 0 0 5 19 3 4 3 5 39 51 35 16 5
95 98 66 96 68 100 99 52 14 72 0 14 70 96 100 100 100 100 100 100 100 100 100 100 100 100 100 100 100 100 100 93 24 49 49 15 99 59 72 79 63 100 89 41
23 43 38 94 100 100 100 100 100 100 38 1 2 69 100 100 100 100 100 53 100 100 100 100 100 100 100 100 100 100 100 100 100 100 100 100 100 92 100 80 76 79 60 100
98 72 4 2 23 100 100 100 100 100 100 100 38 1 100 100 100 100 100 100 100 100 100 100 100 100 100 100 100 100 69 6 13 82 97 96 99 100 99 47 23 6 12 5
100 100 6 3 33 59 100 100 100 100 100 100 100 60 88 99 100 100 100 100 100 100 100 100 100 63 92 100 100 100 100 100 100 98 93 69 100 37 41 100 100 100 65 13
100 100 100 100 99 84 100 100 100 100 100 100 100 100 100 100 100 73 100 100 44 61 100 100 100 100 100 100 100 100 80 92 100 100 100 100 100 100 100 98 99 100 100 60
100 100 100 98 8 93 100 100 100 100 100 100 93 25 100 100 36 93 100 100 100 100 100 100 100 100 100 88 84 62 72 24 16 73 100 99 100 16 55 100 100 100 100 100
100 100 100 99 100 100 100 100 100 100 100 100 100 100 100 100 100 100 100 100 100 100 100 100 100 100 100 95 99 100 5 37 12 63 70 100 100 100 92 63 100 100 100 100
100 100 100 100 100 93 100 100 100 100 100 100 100 100 100 100 100 100 100 100 100 100 100 100 100 100 92 46 35 37 5 5 5 82 24 100 100 100 100 96 100 100 100 97
100 100 100 100 73 33 100 100 13 5 51 100 100 100 100 100 100 100 100 100 100 100 79 5 6 5 5 24 51 5 5 5 5 5 5 12 98 100 100 36 99 100 100 90
71 100 100 100 100 100 100 12 56 30 100 100 100 100 100 87 100 100 100 100 100 100 100 100 95 92 100 100 100 100 68 9 100 99 9 76 75 57 100 100 100 100 100 93
32 68 99 100 98 100 21 91 100 100 100 100 100 100 100 100 49 100 93 100 100 100 100 100 100 100 100 100 100 100 97 72 98 100 86 98 100 100 100 100 100 100 100 100
0 3 5 89 14 19 19 89 100 100 100 100 100 100 100 100 91 100 100 100 99 100 100 100 100 100 100 100 100 100 100 100 100 100 100 100 100 100 100 100 100 100 100 100
4 67 98 5 93 99 88 56 87 87 100 100 100 100 100 100 100 7 100 100 100 100 100 100 100 100 100 100 100 100 100 100 100 100 100 100 100 100 100 100 100 100 100 100
5 4 3 2 6 6 62 4 51 100 100 100 100 100 100 100 100 80 100 98 100 100 100 100 100 100 100 72 64 100 88 56 98 92 96 100 100 100 100 84 80 90 100 100
25 21 48 74 89 71 2 39 58 30 12 100 100 100 100 100 82 62 60 94 73 100 100 100 100 100 100 100 100 84 83 100 100 78 99 100 100 100 99 91 5 30 100 100
0 0 5 64 29 7 4 100 98 93 84 78 94 97 100 76 92 76 1 6 94 100 100 100 100 100 100 100 100 100 100 100 100 100 100 100 99 97 100 94 44 50 98 100
0 0 0 8 0 0 0 29 98 100 84 58 79 14 5 5 5 3 5 55 98 100 100 100 100 100 100 100 100 100 100 100 100 100 100 100 99 100 100 100 100 100 100 100
0 0 0 1 0 0 0 0 0 0 28 57 94 57 18 5 4 28 3 27 70 100 100 100 100 94 75 100 100 100 100 100 100 100 100 100 100 100 100 100 100 100 100 100
0 0 1 0 0 0 0 0 0 0 0 0 2 2 0 1 5 5 5 5 2 0 5 5 15 9 15 94 97 100 100 100 100 100 100 100 100 100 100 100 100 100 100 100

GFSCGP_prec_cloud_009.txt.gz
Cloud_Cover
5 5 100 95 21 5 5 5 26 65 4 2 14 85 100 75 45 100 59 5 0 0 0 0 0 0 0 0 5 0 0 0 0 5 5 4 5 0 0 0 0 3 4 5
56 77 100 100 100 90 77 55 41 83 100 70 5 100 100 100 72 61 9 4 0 0 0 0 0 0 0 0 0 0 4 2 0 1 5 14 5 5 7 10 5 5 5 5
11 100 100 92 24 66 10 10 4 30 19 20 49 99 100 100 98 44 1 17 93 21 0 0 0 0 0 0 0 0 0 0 3 5 5 18 40 95 77 27 5 5 5 5
100 100 100 100 92 68 6 14 12 5 5 63 13 29 100 100 100 100 100 11 48 85 87 4 0 0 0 0 0 0 0 0 0 0 0 6 12 62 35 7 4 5 5 5
100 100 100 100 100 19 98 5 5 5 99 100 81 27 100 100 100 100 100 100 42 34 31 6 6 5 0 0 0 0 0 0 0 0 0 0 0 0 0 1 5 51 11 6
86 100 100 100 100 99 59 82 26 4 5 34 34 15 98 100 100 100 100 100 100 88 88 100 100 100 84 83 21 4 1 0 0 0 0 0 0 0 5 5 8 5 5 5
73 100 28 19 14 45 6 58 21 6 32 64 30 2 100 100 100 100 100 100 100 100 99 11 95 100 96 69 100 100 62 4 0 0 0 0 0 0 0 0 3 5 4 5
86 96 100 44 27 54 6 24 9 61 0 2 6 20 97 100 99 5 100 100 100 100 100 100 100 100 100 100 100 100 66 90 100 91 8 5 5 6 1 5 22 74 73 53
100 42 38 49 100 100 45 7 74 97 94 33 2 1 4 100 100 100 100 100 100 100 100 100 100 100 99 100 100 100 100 100 100 100 100 100 100 85 100 100 55 81 97 100
100 76 100 21 53 29 100 100 63 100 100 100 98 86 31 36 98 24 33 78 100 100 100 82 89 100 34 98 96 100 100 96 100 98 88 100 100 100 100 100 100 100 100 100
100 100 98 60 22 99 100 100 100 100 100 100 96 55 92 92 56 53 25 96 100 100 100 100 100 88 89 90 100 100 99 11 100 100 100 100 100 100 100 100 100 100 100 100
100 100 100 37 100 82 100 100 100 100 100 100 100 100 69 100 100 100 100 100 100 100 100 100 100 100 100 96 100 100 30 15 49 65 100 100 100 100 100 100 100 100 100 100
100 100 100 98 77 100 100 100 100 100 100 100 100 100 100 100 100 100 100 100 100 100 100 100 90 23 100 100 63 10 52 100 100 99 5 93 100 100 100 100 100 100 100 100
100 100 100 100 100 100 100 100 100 100 100 97 100 100 100 100 100 100 100 100 100 15 6 100 52 70 50 14 6 53 100 100 100 100 100 100 100 100 100 79 100 100 100 100
100 100 100 100 100 100 100 100 100 100 100 100 100 100 100 100 89 17 81 82 100 100 100 100 100 100 100 100 100 80 73 6 100 100 100 100 100 100 100 100 100 100 100 100
100 100 100 100 100 100 100 100 100 100 100 100 100 100 100 98 99 80 69 100 85 73 100 100 100 100 100 100 100 100 99 100 40 100 86 23 99 97 12 96 100 100 100 100
100 100 100 100 85 98 63 80 61 40 95 94 100 100 100 100 96 100 100 100 100 100 100 98 65 100 100 100 100 100 100 100 100 94 100 42 12 80 11 100 88 94 98 100
33 42 68 86 23 24 0 0 8 74 100 100 100 100 100 100 100 100 100 100 100 92 100 100 100 100 100 100 100 100 100 100 100 100 100 100 100 95 93 100 100 100 100 100
6 13 77 35 4 2 0 35 5 52 77 80 71 59 15 22 93 100 99 100 100 100 100 78 83 90 100 100 100 59 100 100 100 100 100 100 100 100 100 100 100 100 100 100
4 40 100 66 99 100 5 3 4 17 66 80 100 100 84 85 91 0 100 100 100 100 100 100 93 90 100 100 65 100 95 36 5 6 50 98 100 100 100 100 100 100 100 100
4 7 5 50 16 3 4 0 0 37 4 20 100 100 90 42 8 3 3 79 100 100 100 100 95 95 80 100 92 90 98 100 55 28 49 99 100 100 100 100 99 100 100 100
3 5 4 70 99 33 1 17 78 7 39 82 91 93 87 63 11 3 3 88 100 94 100 100 100 100 100 100 100 100 100 100 100 98 100 100 100 100 98 100 100 90 56 90
4 0 0 2 2 0 0 0 0 0 1 5 40 42 27 25 20 23 4 0 0 22 36 100 100 100 100 100 100 99 27 100 100 100 100 100 100 100 100 100 67 90 100 100
0 0 1 14 0 0 0 0 0 0 0 0 0 0 0 0 0 0 0 0 0 0 0 55 100 100 100 100 100 77 55 100 100 100 100 100 100 100 100 100 100 100 100 100
0 21 1 1 0 1 0 0 0 0 0 0 0 0 0 0 0 0 0 0 0 0 0 6 100 100 100 100 100 100 100 99 100 100 100 100 100 100 100 100 100 100 100 100
7 1 5 2 0 10 4 0 0 0 0 0 0 0 0 1 0 0 0 0 0 0 0 0 4 5 22 32 29 27 62 85 96 100 100 100 100 100 100 100 100 100 100 100

GFSCGP_prec_cloud_012.txt.gz
Cloud_Cover
42 58 98 36 5 5 5 20 27 99 100 8 75 52 100 100 14 5 5 0 0 0 0 0 0 0 0 1 0 5 39 58 5 2 4 6 13 5 5 5 5 2 0 0
71 69 5 2 5 3 8 89 100 100 100 42 6 27 100 100 100 58 100 46 5 2 0 1 0 0 0 0 0 0 2 5 20 27 5 5 2 5 5 4 4 5 5 5
72 100 100 83 34 1 5 4 57 5 94 100 99 96 100 100 100 100 100 100 100 86 99 35 1 2 0 0 0 0 0 0 1 4 0 0 0 2 5 5 5 0 5 5
100 99 100 100 100 22 21 39 23 20 13 96 64 94 100 100 100 100 100 97 100 85 100 100 100 85 0 0 0 0 0 3 0 0 0 0 0 0 0 0 4 5 5 5
100 98 100 100 98 5 5 19 56 100 85 100 100 69 100 100 100 100 100 100 100 32 26 35 54 91 67 4 5 1 0 0 5 5 3 2 0 0 0 0 0 1 5 5
97 88 85 97 69 67 56 29 21 25 99 100 99 25 100 100 100 100 99 100 100 100 100 84 98 82 24 1 0 4 5 1 0 0 6 99 100 76 2 0 0 0 0 0
20 48 52 49 21 75 85 36 8 22 79 98 96 75 100 100 100 100 89 29 91 100 100 100 100 100 100 100 62 5 5 0 5 2 0 10 57 100 99 31 2 0 2 4
39 5 97 5 38 94 89 100 84 98 8 12 7 75 100 100 100 100 100 100 100 98 100 100 87 54 100 100 100 100 93 88 63 5 0 5 55 85 100 84 84 44 97 72
96 90 57 54 72 8 98 100 100 100 100 79 9 5 78 100 100 100 100 74 66 99 45 5 24 13 4 5 7 99 100 100 100 100 37 5 5 12 5 5 6 8 9 65
100 100 60 90 99 5 99 100 100 96 100 100 46 81 76 100 100 83 100 100 100 33 5 7 4 42 97 32 6 5 47 100 100 100 100 100 100 100 65 72 8 28 46 100
100 100 100 52 96 100 100 100 100 100 100 100 100 100 100 84 99 100 100 100 100 100 100 100 94 1 5 17 5 16 16 23 100 96 32 100 100 100 100 100 100 100 100 100
100 100 100 100 100 100 100 100 100 100 100 100 100 98 100 100 100 100 100 100 88 6 99 87 87 76 14 83 89 99 53 30 100 100 100 100 100 100 100 100 100 100 100 100
100 100 100 100 100 100 100 100 100 100 100 100 100 100 100 100 100 100 100 100 100 100 100 100 100 100 100 100 84 100 100 90 100 100 100 100 100 100 100 100 100 100 100 100
100 100 100 100 100 100 100 100 100 100 100 100 100 100 100 100 100 100 100 100 100 100 100 100 100 100 100 100 100 63 68 61 66 89 85 99 100 100 100 100 100 100 100 100
100 100 100 99 100 100 100 100 100 100 100 100 100 100 100 100 100 100 100 100 100 100 100 100 100 100 100 100 100 100 100 100 100 100 100 100 100 100 100 96 100 100 100 100
96 91 100 69 47 100 100 65 92 66 99 100 100 92 51 38 96 100 100 100 100 100 100 100 100 80 99 83 17 91 100 100 100 100 100 100 100 100 100 100 100 100 100 100
97 100 100 82 3 40 79 0 0 0 0 4 86 100 96 59 90 98 87 100 100 98 100 64 56 100 100 100 100 98 100 41 16 74 100 100 100 100 100 100 100 100 100 100
100 97 100 100 98 96 0 2 2 61 92 59 98 100 98 80 70 81 7 38 16 66 88 57 100 72 100 100 100 83 98 98 17 18 5 5 84 100 100 100 100 100 100 100
8 33 90 74 54 0 0 1 0 0 50 18 92 86 100 100 19 14 29 11 5 5 5 25 100 76 100 100 100 100 83 5 14 14 40 100 100 97 99 100 34 81 100 100
0 8 95 99 100 68 4 0 0 0 51 5 9 5 64 75 45 2 3 2 3 30 66 7 5 65 48 5 5 27 45 100 65 35 76 100 100 100 97 42 5 5 5 94
6 6 78 70 100 53 0 0 0 2 1 0 5 5 5 15 4 1 0 0 0 0 0 0 0 0 5 9 53 90 31 70 98 100 93 100 100 100 100 80 83 29 34 8
0 1 3 47 75 3 0 0 1 1 0 1 0 0 5 1 0 0 0 0 0 0 0 0 0 0 0 5 6 5 99 92 100 100 95 100 100 100 97 98 100 98 83 70
5 0 5 36 2 5 5 5 5 5 5 0 0 0 0 0 0 0 0 0 0 0 0 0 0 0 0 0 0 0 0 94 74 97 27 92 74 95 100 100 100 100 100 93
4 16 78 14 0 5 5 5 5 5 4 0 0 0 0 5 2 0 0 0 0 0 0 0 0 0 0 0 0 0 0 3 5 5 6 88 100 100 100 100 99 100 100 100
3 5 5 3 0 4 2 0 2 4 4 4 0 0 5 5 4 3 1 0 0 0 0 0 0 0 0 0 0 0 0 4 5 5 16 5 100 100 100 100 89 92 100 100
8 3 12 5 2 6 3 0 5 5 5 1 0 0 3 5 5 17 5 4 0 0 0 0 0 3 0 3 4 5 5 5 5 5 5 70 99 100 100 100 98 86 100 100

GFSCGP_prec_cloud_015.txt.gz
Cloud_Cover
5 5 5 5 5 5 5 5 5 5 25 6 100 100 100 100 100 100 100 6 1 0 0 0 1 0 0 2 5 5 0 5 5 2 5 6 9 5 5 5 4 0 0 5
71 80 54 27 61 38 34 5 93 100 99 25 65 100 100 100 100 100 100 88 11 30 62 17 1 0 0 0 4 5 12 5 5 5 5 5 5 5 5 8 10 22 5 5
25 21 43 19 38 72 89 46 40 96 96 85 95 100 100 100 100 100 100 100 100 100 76 22 30 14 1 0 0 1 4 3 1 0 0 2 5 5 4 3 5 4 3 3
100 98 65 92 57 62 14 40 76 34 95 45 98 95 100 100 100 100 100 100 100 100 45 20 87 100 87 1 0 0 0 0 0 0 0 0 2 4 5 2 0 0 0 0
100 100 94 80 69 13 59 36 20 88 39 69 100 26 100 100 100 100 100 100 100 100 98 43 7 0 4 2 3 2 1 0 0 0 0 0 0 5 5 5 4 5 3 0
33 67 100 100 100 100 60 27 17 3 38 98 86 73 100 100 100 100 100 100 100 100 100 99 44 100 100 100 100 100 100 25 0 1 0 0 0 1 1 4 10 5 37 74
99 84 61 100 100 100 100 84 20 22 8 13 26 69 100 100 100 100 100 100 83 4 2 66 100 100 100 100 100 100 87 41 97 21 0 0 0 0 0 1 5 89 48 85
13 64 65 38 98 98 100 100 100 100 15 36 5 33 100 100 100 100 100 100 73 3 0 16 100 53 100 100 100 100 100 100 100 100 100 85 33 9 0 0 0 67 74 94
100 15 100 100 100 98 100 100 100 100 100 93 4 11 86 100 100 48 5 5 5 2 5 0 46 99 7 92 84 100 100 100 100 100 100 100 100 70 100 72 1 2 37 98
100 92 100 100 100 50 100 100 100 100 100 100 25 6 15 100 100 100 89 20 42 89 76 19 9 5 14 32 58 67 10 98 100 100 100 100 100 100 96 100 100 63 94 89
100 100 100 100 100 100 100 100 100 100 100 100 100 100 100 100 100 100 100 100 69 100 100 100 100 100 91 72 72 28 90 25 56 100 99 100 100 100 100 90 82 100 100 100
100 100 100 100 100 100 100 100 100 100 100 100 100 100 100 100 100 100 100 100 100 100 100 100 100 100 93 100 100 99 70 100 95 98 100 100 100 100 99 71 92 100 61 52
100 100 100 100 100 100 100 100 100 100 100 100 100 100 100 100 100 100 100 100 100 100 100 100 100 100 98 86 100 100 100 44 100 100 100 100 100 100 100 100 100 100 100 100
100 100 100 100 55 73 100 100 100 100 100 100 100 100 100 100 100 100 100 100 100 100 100 100 100 100 100 100 100 100 100 100 100 100 100 100 100 100 100 100 100 100 100 100
100 100 59 72 67 100 82 91 91 99 100 100 100 100 100 90 48 93 100 100 94 100 100 100 100 100 100 100 100 100 100 100 100 100 100 100 100 100 100 100 100 100 100 100
100 100 100 86 18 100 100 19 5 5 4 99 100 26 5 5 6 5 99 99 39 5 5 5 4 77 86 66 92 100 92 100 84 93 91 100 100 100 100 100 100 100 100 100
100 99 98 90 5 68 97 1 0 0 0 0 2 30 7 5 5 10 5 10 6 5 5 6 9 1 0 0 0 2 78 49 20 100 100 66 29 22 100 100 100 100 100 100
100 96 100 100 87 99 1 2 2 2 31 27 57 92 100 100 94 70 81 66 9 5 5 5 2 0 0 0 0 0 0 2 71 98 97 100 100 88 74 94 92 100 100 100
32 19 62 74 39 22 0 0 0 0 2 5 5 97 58 74 10 2 2 2 0 0 0 0 0 0 0 1 0 4 2 1 4 1 10 54 61 90 100 98 90 98 100 100
1 83 100 100 100 84 0 0 0 0 6 5 5 2 4 6 76 0 0 0 0 0 0 0 0 0 0 0 0 5 0 0 0 0 0 8 100 66 6 83 100 100 100 98
3 68 98 55 100 66 4 12 14 5 1 3 3 1 4 8 0 0 0 0 0 0 0 0 0 0 0 0 3 0 0 0 0 0 0 0 84 100 45 35 46 92 93 96
0 3 23 80 74 81 1 0 3 3 1 1 0 0 0 0 0 0 0 0 0 0 0 0 0 0 0 0 0 0 0 0 2 0 0 0 0 100 100 94 21 22 84 84
11 0 76 36 9 0 0 0 3 5 4 0 0 0 4 2 0 0 0 0 3 0 0 0 0 0 0 0 3 3 0 0 0 3 0 0 0 0 5 22 41 90 95 98
0 0 4 22 15 19 64 50 67 29 5 5 5 0 0 4 1 1 0 1 4 2 5 4 4 0 0 0 0 1 1 5 4 5 5 4 5 5 5 5 5 5 84 100
1 7 12 20 5 92 6 22 5 5 5 4 1 4 5 1 0 5 5 5 5 1 0 0 0 3 4 5 3 5 5 5 8 13 7 5 6 5 5 5 5 56 8 99
5 12 59 15 5 93 6 2 65 9 5 5 5 3 1 4 5 5 5 2 0 0 0 4 5 5 5 5 5 5 25 94 100 100 100 100 100 99 100 100 87 37 98 99

GFSCGP_prec_cloud_021.txt.gz
Cloud_Cover
9 7 46 10 13 28 17 47 13 79 81 70 100 100 100 12 71 100 100 4 0 0 0 0 4 5 20 4 1 33 91 18 5 5 0 0 0 2 2 0 0 10 1 0
91 12 20 93 89 59 6 71 88 100 96 8 100 100 100 66 76 36 40 17 41 6 1 0 3 5 7 5 0 0 74 98 42 5 9 79 100 74 12 6 3 48 14 0
98 51 12 9 21 84 100 64 34 54 59 99 73 100 100 100 86 99 9 61 27 72 98 20 21 5 5 17 6 4 20 98 92 59 15 91 100 99 46 15 5 52 30 18
100 100 100 71 64 6 6 12 5 48 74 46 44 32 100 100 100 19 14 91 45 96 99 85 78 76 31 5 5 72 100 100 94 98 8 0 5 66 93 99 93 5 5 6
85 100 100 100 99 92 88 100 86 11 78 91 96 70 100 100 100 100 100 100 98 89 100 100 100 88 98 99 50 62 8 100 100 49 82 7 84 56 100 17 35 100 100 10
5 42 98 98 81 72 83 65 81 66 88 100 89 25 100 21 80 85 99 100 88 19 23 76 100 100 87 61 41 59 98 63 100 72 71 25 44 60 44 26 100 97 13 18
5 28 46 11 21 45 92 89 30 23 83 93 86 33 100 100 91 27 19 32 60 68 59 100 100 93 100 98 100 100 88 96 97 48 79 100 100 44 24 92 84 80 93 74
6 60 40 74 100 100 93 89 100 98 27 5 45 56 100 100 98 94 60 25 5 98 100 96 100 100 100 90 100 100 100 100 95 82 98 77 38 67 39 13 53 6 22 20
100 100 53 100 100 97 100 100 100 100 99 90 5 12 74 96 23 12 62 100 100 13 71 8 6 55 100 91 56 74 99 100 100 100 100 100 100 98 98 15 5 5 5 40
100 100 89 100 100 100 100 100 100 100 100 100 51 65 5 97 100 77 30 32 88 100 88 11 59 93 87 100 98 100 91 100 100 100 100 100 100 100 100 100 100 98 49 9
100 100 91 100 100 100 100 100 100 100 100 100 100 100 100 92 100 100 100 75 100 100 100 100 100 100 100 100 100 100 100 100 100 100 100 100 100 100 100 100 100 100 100 100
100 100 100 100 100 100 100 100 100 100 100 100 100 100 100 100 100 100 100 100 99 100 100 100 100 100 100 100 100 100 99 100 100 100 100 100 100 100 100 100 100 100 100 100
100 100 100 99 87 99 100 100 100 100 100 100 100 100 100 100 100 100 100 100 100 100 100 100 100 100 100 100 100 100 100 100 95 100 100 100 100 100 100 100 100 100 100 100
12 74 96 74 3 10 58 12 51 100 100 100 100 100 56 73 100 100 73 50 100 100 100 100 100 100 100 100 100 100 100 100 100 100 100 100 100 100 100 100 100 100 100 100
26 51 37 13 5 49 87 29 5 93 73 100 57 80 5 4 95 8 3 22 10 16 17 4 18 57 100 100 100 95 32 93 81 100 100 100 100 100 100 100 100 100 100 100
94 62 5 5 5 5 5 0 5 5 56 98 46 16 0 0 0 6 38 66 65 90 5 5 5 5 5 5 5 4 1 0 0 0 0 20 37 38 85 100 100 100 100 100
34 27 15 4 2 4 15 0 0 1 0 12 74 5 0 0 0 0 0 2 5 8 88 98 94 99 15 5 4 0 0 0 0 0 0 0 0 0 0 1 59 99 100 100
63 48 95 69 46 97 0 0 4 1 0 1 3 4 2 2 3 4 5 5 5 12 38 94 51 2 0 0 0 0 0 0 0 0 0 0 0 0 0 0 0 0 11 63
0 5 100 100 95 10 0 0 0 0 0 6 2 4 3 13 15 2 64 16 0 5 5 5 2 0 0 0 0 0 0 0 0 0 0 0 0 0 0 0 0 0 0 0
1 4 91 100 94 16 4 37 1 0 2 0 0 5 5 37 68 0 4 0 0 0 0 0 0 0 0 0 0 0 0 0 0 0 0 0 0 1 2 4 1 0 0 0
2 3 48 30 89 69 5 1 0 30 1 3 5 5 9 12 10 2 0 0 0 0 0 0 0 0 0 0 0 0 0 0 0 2 5 5 5 5 5 11 18 5 5 5
1 4 5 68 94 76 0 2 1 0 0 0 9 96 98 23 2 1 0 0 0 0 0 0 0 0 0 0 0 0 0 0 5 5 5 5 22 60 87 99 96 100 100 99
4 0 6 76 75 0 0 0 0 0 4 0 3 0 1 0 0 0 1 0 0 0 0 0 0 0 0 0 0 0 0 0 4 5 5 5 8 29 98 100 100 100 100 100
0 0 97 16 1 0 0 3 11 49 5 2 1 1 0 6 6 5 5 5 5 0 0 0 0 1 0 0 0 1 5 5 5 5 5 14 72 84 98 100 100 100 100 100
0 5 0 24 0 0 0 5 88 89 73 53 29 5 5 7 61 47 5 5 0 0 0 0 0 0 0 0 2 5 5 5 48 92 100 100 100 100 100 100 100 100 100 100
0 0 8 5 5 75 6 5 20 90 10 6 5 4 12 80 98 60 5 4 0 0 0 0 0 4 5 5 5 5 5 32 100 100 100 100 100 100 100 100 100 100 100 100

GFSCGP_prec_cloud_024.txt.gz
Cloud_Cover
5 5 5 5 48 11 21 49 85 16 5 20 28 52 71 5 42 100 99 52 4 0 5 5 5 5 0 0 5 5 78 82 47 5 26 51 70 1 0 55 100 100 100 85
5 5 20 5 55 58 8 6 78 84 23 5 43 92 100 100 78 80 96 100 100 44 5 6 5 78 5 2 1 5 5 5 18 6 5 16 13 12 5 5 36 100 100 100
51 72 5 18 72 88 92 98 94 88 89 98 45 63 37 72 100 99 100 100 100 100 66 18 43 11 5 40 44 12 27 50 6 44 65 7 12 79 28 6 16 33 90 100
94 100 75 18 5 5 57 30 6 21 46 99 23 98 100 16 17 97 100 100 100 100 100 100 91 10 100 90 49 6 38 90 76 7 98 81 100 92 5 39 57 21 0 41
93 98 98 100 100 30 8 7 85 42 91 34 49 5 27 69 5 96 100 100 100 100 100 100 100 100 100 100 98 45 89 89 52 100 54 94 25 100 100 100 100 96 86 34
5 69 5 6 40 72 100 15 68 7 5 97 33 10 100 100 86 8 57 100 100 100 98 99 100 100 100 100 100 100 94 12 5 47 47 39 71 54 100 100 100 100 55 45
5 5 42 22 6 5 43 60 11 5 14 29 55 37 100 100 19 5 5 50 80 99 68 95 100 100 100 71 71 100 100 100 100 86 7 19 68 80 98 100 100 42 66 82
5 5 31 23 36 73 64 82 99 38 48 5 86 47 100 100 20 6 6 6 69 8 48 11 90 100 94 58 51 64 74 100 100 93 100 99 87 9 26 68 100 100 25 100
48 5 82 5 100 100 98 100 100 100 100 77 34 53 100 100 99 91 14 66 5 100 99 81 66 14 73 89 90 45 32 73 98 93 100 100 100 100 100 43 40 98 84 16
77 37 72 77 44 100 100 100 100 100 100 100 100 100 100 100 94 100 100 96 99 100 100 100 100 100 94 81 94 100 100 99 70 96 100 96 100 100 100 100 100 100 59 91
100 100 51 70 100 100 100 100 100 100 100 100 100 100 100 70 100 59 100 100 41 85 100 100 100 100 100 100 100 100 100 100 100 100 100 100 100 100 100 92 100 100 100 100
100 99 99 100 100 100 100 100 100 100 100 100 100 100 51 3 38 85 100 100 100 79 72 95 100 100 100 100 100 99 100 100 100 100 100 99 100 100 100 100 100 100 100 100
100 100 100 100 100 100 100 100 100 100 97 72 99 32 5 5 9 34 73 36 97 100 100 100 100 100 100 100 100 100 100 100 100 100 100 100 100 100 100 100 93 96 100 100
100 100 100 100 100 100 100 84 43 55 99 25 7 4 0 0 41 25 5 3 0 2 0 80 78 58 12 5 1 2 100 100 100 100 100 100 100 100 100 98 100 100 97 87
100 100 100 100 100 100 15 5 4 5 8 87 0 0 0 0 1 4 0 0 0 0 0 0 0 0 5 5 5 5 8 93 100 100 100 15 21 94 91 95 100 22 87 50
100 100 100 84 44 5 5 0 5 0 0 0 3 4 0 1 4 5 3 2 0 0 0 1 5 5 5 5 4 5 5 5 1 1 2 0 4 6 93 100 100 99 80 11
100 100 100 40 5 5 20 2 0 0 0 0 1 1 5 4 5 5 3 1 0 0 1 5 67 32 17 6 8 5 5 1 4 10 62 5 5 4 0 1 0 0 0 0
100 98 49 39 12 87 0 0 0 0 0 0 4 5 1 0 0 0 0 0 2 1 1 5 27 81 100 100 58 5 0 5 4 5 5 5 5 5 1 2 1 0 0 0
10 36 94 51 16 0 0 0 4 5 0 0 0 1 0 0 0 0 1 5 3 2 4 5 5 1 0 0 0 0 0 3 0 0 1 1 0 1 0 0 0 3 4 2
46 4 43 5 93 12 3 5 5 0 1 2 1 0 0 1 5 0 2 2 3 3 3 0 0 0 0 0 0 0 0 4 0 0 0 0 3 5 5 5 21 74 77 39
5 5 5 83 99 10 1 0 0 9 0 0 0 1 0 1 4 1 1 1 0 0 0 0 0 0 0 0 0 0 0 0 0 0 0 1 4 5 5 5 5 5 28 74
42 72 80 49 75 78 0 0 0 0 0 3 1 0 0 0 1 1 2 0 0 0 0 0 0 0 0 1 1 0 0 0 0 3 5 5 3 4 5 5 5 15 94 100
97 40 1 0 1 0 0 0 0 0 1 1 5 0 4 4 2 4 4 4 4 5 4 0 3 2 0 4 5 3 0 0 2 5 5 5 5 5 5 36 72 98 100 100
3 0 0 1 0 0 5 9 5 5 4 0 0 1 5 5 5 5 5 5 5 8 5 5 5 5 5 5 1 5 1 3 5 5 8 28 87 90 97 100 100 100 100 100
0 0 0 10 5 54 5 5 5 5 5 5 5 5 5 5 5 5 38 96 7 5 5 5 5 5 4 0 0 5 0 5 5 52 93 100 93 96 100 100 100 100 100 100
0 0 2 10 97 100 85 40 5 10 38 93 91 10 5 5 6 5 52 98 100 99 99 34 5 5 5 5 5 5 5 5 26 100 100 63 87 100 100 100 100 98 100 100

GFSCGP_prec_cloud_027.txt.gz
Cloud_Cover
4 5 11 5 5 5 5 5 27 98 85 42 98 100 100 97 9 76 100 100 99 21 5 4 5 5 5 4 5 22 5 5 3 0 4 16 8 5 48 87 100 100 100 100
5 5 5 5 18 25 12 19 5 5 6 5 15 73 100 89 8 82 100 100 100 100 100 100 100 100 95 95 11 5 5 5 42 5 5 5 5 5 3 28 78 100 100 100
24 34 16 5 5 14 87 99 90 55 12 5 50 100 100 100 100 100 73 25 30 15 100 100 100 100 100 100 95 61 7 8 5 24 5 8 3 3 5 15 86 100 100 100
87 87 38 6 8 5 84 5 5 5 3 15 74 99 100 88 49 86 99 16 5 5 5 94 100 100 100 100 100 100 100 100 92 5 56 47 4 4 5 19 9 12 43 100
37 78 97 94 61 38 58 7 5 5 5 5 5 7 62 96 19 81 79 75 17 91 42 24 98 100 100 100 100 100 100 100 100 100 88 42 6 43 12 16 55 96 85 59
91 93 73 10 6 6 8 5 28 6 5 5 91 20 99 95 5 50 65 99 94 66 74 33 98 83 100 100 100 100 100 100 100 100 100 100 97 80 40 17 42 7 89 100
100 96 100 91 86 100 45 18 7 8 78 77 24 52 86 35 12 8 21 33 19 6 38 88 95 66 82 88 100 98 95 100 100 100 100 100 100 100 6 78 76 96 80 15
22 90 20 33 88 73 96 100 100 43 5 21 90 100 82 20 8 5 23 41 5 45 86 75 46 7 5 5 9 23 100 77 90 97 90 100 100 100 100 97 100 71 84 95
23 5 19 5 5 77 48 55 28 60 100 18 39 84 69 62 20 96 60 39 8 100 22 80 98 99 100 100 100 96 98 42 53 44 76 90 26 78 100 100 100 100 100 99
61 79 17 5 5 58 100 99 68 93 89 99 11 96 100 100 99 100 100 100 100 84 31 96 92 98 93 100 100 100 100 58 84 88 84 90 95 96 100 93 95 100 100 100
100 93 46 27 78 98 98 96 81 71 100 100 98 100 100 100 100 100 100 100 100 51 17 21 30 99 100 100 38 81 91 85 100 100 100 100 100 100 100 96 100 100 96 100
93 100 99 100 100 100 100 100 92 100 100 100 76 23 99 24 41 75 99 74 86 28 45 97 71 98 100 99 98 100 100 100 89 85 98 96 100 100 100 100 100 100 100 100
26 7 32 53 99 100 100 100 100 100 100 18 82 27 38 6 64 58 5 4 2 3 1 0 0 0 0 3 0 0 56 22 85 100 100 61 28 65 91 100 95 100 100 100
77 83 44 67 100 100 100 100 100 100 100 100 94 100 85 98 46 5 5 0 0 0 2 0 0 0 5 2 0 0 2 5 4 4 12 84 77 1 31 4 34 98 25 58
100 100 100 100 100 100 100 100 100 98 100 100 24 100 100 99 12 5 0 0 2 5 4 5 5 3 1 0 3 5 74 80 81 50 8 5 5 1 3 5 5 5 5 95
100 100 100 100 100 100 100 100 99 100 100 100 100 37 94 5 0 0 0 0 2 5 21 29 11 5 5 5 5 0 0 0 0 0 2 0 0 0 0 0 0 0 0 0
100 100 100 100 100 96 18 99 100 100 100 100 100 88 5 1 0 0 3 5 5 6 67 67 8 5 5 5 4 2 2 5 4 5 5 3 3 2 0 3 0 0 0 0
100 100 100 98 99 81 94 100 100 100 100 56 4 5 0 0 0 0 0 0 0 0 0 0 0 0 0 5 5 5 1 5 2 5 5 5 5 5 5 3 0 0 0 2
100 100 100 94 83 98 100 100 40 3 0 0 5 5 4 4 0 0 0 0 0 0 5 5 5 0 0 2 5 1 5 5 5 1 3 5 5 5 2 0 0 3 5 5
100 100 100 100 97 57 11 3 1 5 5 75 5 10 3 0 0 0 0 0 0 0 0 0 0 0 0 0 0 0 5 5 0 5 3 0 0 5 5 5 5 5 5 5
100 100 87 96 100 11 5 32 99 42 22 5 2 0 0 0 0 0 0 0 0 0 0 0 0 5 5 4 0 0 4 3 4 4 0 1 2 0 4 5 5 5 5 6
15 21 31 58 100 79 56 23 63 21 0 0 0 0 0 0 0 0 0 0 0 0 0 0 4 5 5 5 5 3 2 0 3 4 5 5 4 5 5 5 5 11 73 97
84 62 37 6 5 5 5 66 5 3 0 0 0 0 0 0 0 0 0 0 0 0 4 5 5 5 5 5 5 5 1 3 5 5 5 5 5 5 5 41 92 100 100 100
6 5 5 3 0 3 60 42 4 4 5 5 1 0 0 0 0 0 0 1 5 5 5 75 100 6 80 10 5 5 5 5 5 5 5 5 5 5 22 5 5 100 100 100
0 0 0 1 0 0 0 0 0 36 100 49 0 0 0 4 3 4 5 5 49 28 12 60 16 55 92 94 78 5 5 5 19 5 7 48 36 46 28 30 91 100 100 100
0 0 1 1 0 0 0 0 2 20 5 5 5 3 4 15 81 25 5 4 5 5 100 82 98 83 100 72 92 21 5 5 5 80 70 72 100 77 100 100 96 59 100 100

GFSCGP_prec_cloud_030.txt.gz
Cloud_Cover
80 13 11 5 5 5 14 42 65 54 7 9 7 58 53 79 100 100 100 100 100 100 100 100 77 7 0 5 10 69 61 11 29 94 64 48 47 5 58 100 100 100 100 100
5 5 5 5 5 14 21 44 5 46 34 68 97 98 16 5 26 81 71 93 100 100 100 100 100 100 100 42 5 96 100 98 90 92 33 73 82 21 12 91 100 100 100 100
48 53 6 44 5 5 5 5 5 5 5 5 16 24 36 10 42 81 100 100 100 100 100 100 86 84 65 100 100 100 94 100 100 100 100 97 100 100 100 93 98 100 100 100
59 34 12 24 5 7 5 5 5 5 5 5 5 3 32 3 3 5 15 64 100 100 98 100 93 80 73 98 97 91 86 100 100 100 100 100 85 45 100 100 73 98 99 82
41 59 59 54 7 23 5 5 5 5 0 2 6 0 5 8 4 6 4 0 1 8 99 100 100 100 100 100 100 100 100 100 100 100 100 73 100 89 100 88 99 21 37 12
28 54 53 61 27 96 93 72 24 13 9 5 21 1 1 21 8 77 57 22 5 4 5 72 100 100 97 100 100 88 100 92 94 100 100 100 100 100 100 100 78 100 73 13
100 98 40 52 92 74 79 69 80 52 53 50 48 46 31 5 6 48 11 27 42 13 62 93 50 28 11 53 74 66 90 82 33 9 5 12 92 97 100 100 100 100 42 89
100 100 60 99 91 96 99 100 90 8 35 73 40 66 100 97 71 8 5 8 41 91 14 5 17 65 67 93 93 46 30 60 59 100 95 85 97 12 53 100 96 98 100 95
98 79 92 96 100 99 100 97 60 17 24 5 5 53 77 64 86 98 14 16 11 44 5 5 6 63 73 68 34 31 43 37 9 5 11 5 38 96 100 100 100 100 100 100
64 57 100 99 100 100 100 69 41 16 5 84 5 5 5 5 5 36 90 59 34 70 100 98 97 94 100 96 85 72 93 100 99 99 78 95 5 23 78 85 80 28 99 100
100 99 30 27 76 71 91 40 35 28 5 5 6 0 0 8 14 63 100 100 100 100 100 97 71 99 85 63 74 80 59 64 77 96 99 98 8 5 100 25 20 63 81 42
100 100 77 98 76 48 91 13 7 5 5 5 5 0 70 100 100 100 100 100 6 100 88 6 5 18 5 5 5 2 0 0 0 12 100 100 98 93 33 22 5 0 5 9
94 74 47 88 98 100 34 7 6 16 63 84 100 85 100 100 100 100 92 100 100 27 8 6 30 79 33 5 4 4 2 0 0 0 0 0 0 0 0 0 0 0 0 0
50 5 6 18 100 90 99 97 79 100 100 100 100 100 100 100 100 100 100 100 83 69 24 13 52 16 5 5 5 5 5 2 0 2 2 5 0 0 0 0 0 3 4 3
70 99 96 94 100 100 100 91 100 100 100 100 100 100 100 100 100 100 10 7 5 19 5 3 1 5 5 12 26 18 5 5 5 5 1 0 0 0 0 5 5 5 5 3
100 97 100 100 100 100 99 42 100 100 96 100 100 100 100 100 100 100 97 100 79 4 0 1 5 5 1 0 0 0 3 5 0 0 2 0 4 3 2 5 5 0 0 0
100 100 100 100 100 100 10 81 100 100 100 100 100 100 97 71 92 100 81 5 0 5 5 5 5 5 3 0 5 5 4 0 5 5 5 5 5 5 5 5 0 0 0 0
100 100 100 100 100 91 97 98 100 100 100 100 100 100 100 90 43 3 4 5 5 5 5 0 0 0 0 5 5 5 5 5 5 5 5 5 5 5 1 0 0 0 0 0
100 100 100 100 100 93 100 100 100 100 85 16 82 98 5 5 0 4 5 5 5 5 1 0 0 5 3 1 0 0 3 5 1 3 5 5 5 5 2 5 1 0 0 4
100 100 100 100 100 100 100 100 100 100 63 100 27 5 5 7 11 5 5 3 0 0 0 0 0 0 0 0 0 0 5 5 5 5 5 5 1 5 5 5 5 5 5 5
100 100 100 100 100 46 100 100 98 78 68 5 9 8 5 4 1 0 0 0 0 0 0 0 1 0 0 0 0 0 4 5 5 4 5 5 4 5 5 5 5 5 5 6
100 100 100 100 100 100 100 100 12 81 83 36 5 2 0 0 0 0 0 0 0 0 0 0 2 0 1 5 5 5 5 5 5 5 5 5 5 5 5 5 5 5 54 100
100 100 100 100 100 100 23 74 68 27 6 2 0 0 0 0 0 0 0 0 0 0 0 0 3 0 4 5 35 6 5 5 5 5 5 5 5 5 5 5 5 89 66 79
100 100 100 55 100 62 100 100 93 53 9 5 4 13 5 4 0 0 0 0 0 5 5 5 5 5 6 80 87 50 30 5 5 9 5 5 5 5 5 5 5 81 49 100
100 94 84 4 2 28 15 20 46 67 40 5 3 38 5 5 0 0 0 0 5 5 5 5 5 5 8 95 70 66 76 14 8 5 5 5 5 5 5 9 18 92 100 100
43 2 0 5 62 98 5 0 5 5 4 5 66 77 25 5 5 5 0 2 5 5 5 5 5 5 97 93 100 96 81 97 100 10 5 5 50 57 64 64 87 96 96 100

GFSCGP_prec_cloud_033.txt.gz
Cloud_Cover
5 5 11 5 28 32 5 5 5 5 5 58 42 96 64 36 25 92 15 41 48 100 100 100 100 100 79 29 5 5 76 100 100 100 100 87 5 16 67 100 100 100 100 100
5 5 5 5 5 5 5 5 11 22 5 9 6 5 5 5 39 76 44 69 85 42 94 96 100 100 100 100 100 100 87 45 27 5 68 100 100 100 68 72 100 100 100 100
6 51 7 5 5 5 5 5 5 5 0 0 2 4 5 5 5 5 5 4 5 32 5 8 71 100 100 100 100 100 100 100 100 100 76 43 37 100 100 100 100 100 99 100
29 57 25 29 7 5 5 0 5 5 0 0 3 0 2 0 0 0 0 0 0 0 4 5 5 5 8 72 100 100 100 100 100 100 100 100 100 100 100 100 100 100 100 100
65 56 81 79 53 59 31 6 7 13 5 5 97 10 53 40 79 8 6 6 6 0 0 0 2 5 5 24 29 58 99 100 100 100 100 96 100 71 96 100 100 100 100 100
100 100 100 100 97 63 54 59 5 5 5 6 91 46 66 99 100 100 89 34 23 62 70 60 42 38 21 36 62 18 100 100 89 72 47 97 59 65 100 76 8 69 100 100
100 100 98 75 75 59 40 30 6 5 15 5 20 39 99 35 10 23 26 16 31 76 66 40 97 76 27 88 21 6 31 68 72 90 8 61 12 6 19 45 36 74 76 99
100 100 100 100 100 98 61 99 84 48 15 99 99 91 96 100 100 100 98 78 32 8 5 11 37 17 5 27 63 45 33 18 81 80 67 98 97 99 34 86 82 59 79 100
100 100 100 100 100 60 93 99 99 81 100 88 99 100 99 78 39 19 52 12 5 5 5 5 5 5 5 6 5 14 12 31 70 24 14 10 5 7 6 56 6 61 26 94
100 100 100 100 100 100 83 99 100 100 34 69 32 59 100 100 98 35 5 5 5 5 5 5 5 17 5 5 19 91 86 5 30 2 3 1 0 2 2 0 0 2 3 12
100 100 100 100 100 100 100 45 79 100 100 100 94 100 100 100 26 6 28 69 6 23 57 52 96 70 61 75 76 50 4 0 2 0 4 1 0 0 0 0 0 0 0 2
100 100 82 100 100 81 100 100 100 91 77 57 87 86 57 7 5 7 92 100 100 100 68 100 100 100 100 100 100 5 0 0 5 5 5 0 0 0 0 0 0 0 0 0
100 89 73 100 93 100 100 100 100 83 14 10 36 11 5 5 12 100 100 100 12 16 32 100 100 99 19 4 3 5 17 9 1 0 0 0 0 0 0 0 0 0 1 2
100 82 97 100 97 90 57 47 88 18 64 47 26 98 86 100 100 100 27 21 36 9 100 100 91 5 5 18 98 20 0 0 0 0 0 0 0 0 0 0 2 5 5 5
100 91 91 58 99 90 70 11 49 12 92 100 100 100 100 100 100 100 68 83 93 100 100 100 48 68 88 62 2 0 0 0 4 4 3 0 0 0 1 5 5 5 5 0
100 55 24 100 92 78 80 5 85 100 100 100 100 100 100 100 32 100 100 100 30 71 100 66 100 50 4 8 26 10 24 12 5 4 2 0 4 5 5 5 0 0 0 0
97 82 100 98 100 100 98 82 100 100 100 100 25 95 100 94 100 100 100 100 100 100 100 100 36 26 99 98 74 5 5 5 5 5 5 5 5 5 4 0 0 0 0 0
100 99 100 100 100 100 100 93 100 100 100 100 100 100 100 100 69 94 100 100 100 100 100 50 91 56 8 2 0 0 2 5 3 5 5 5 4 5 0 0 0 0 0 0
100 100 100 100 100 96 100 100 100 100 100 100 100 100 100 56 100 100 100 98 100 97 8 5 5 3 0 0 0 2 5 1 0 5 5 5 4 5 4 5 4 0 5 5
100 100 100 100 100 100 100 100 100 100 27 66 99 83 71 100 65 100 100 100 31 5 5 0 0 0 0 0 0 0 5 0 2 5 5 5 5 5 5 5 5 5 5 5
100 100 100 100 100 100 100 100 100 100 76 12 91 99 69 70 84 89 49 2 5 0 0 0 0 0 0 0 0 0 4 0 5 5 6 15 8 5 5 5 5 5 5 5
100 100 100 100 100 100 100 100 100 98 91 98 93 36 100 100 62 4 0 0 0 0 0 0 0 2 0 2 0 2 0 5 61 98 92 90 89 35 5 5 5 5 5 56
100 100 100 100 100 100 100 100 78 95 79 55 6 68 21 6 0 0 0 0 0 0 0 0 5 3 0 4 4 0 2 49 100 100 100 100 100 65 5 26 5 18 5 49
100 100 100 100 100 100 100 93 91 98 98 98 48 3 0 0 0 0 0 0 0 0 0 5 5 5 5 5 5 4 6 100 100 85 100 100 94 75 32 5 5 13 34 80
100 100 100 100 100 100 58 85 26 8 5 5 5 5 5 5 0 0 0 0 3 5 5 5 5 5 5 5 5 5 27 91 78 97 100 100 100 80 5 5 5 32 89 100
100 100 100 95 96 88 92 7 5 5 5 5 5 3 0 4 0 2 5 5 5 5 5 5 5 5 5 5 5 5 42 13 70 63 77 91 78 22 5 5 5 8 92 100

GFSCGP_prec_cloud_036.txt.gz
Cloud_Cover
9 83 40 5 5 15 5 5 29 5 5 12 9 79 42 48 58 49 5 5 5 5 3 5 12 51 12 5 5 5 0 3 2 8 75 98 64 44 92 99 92 100 100 100
8 15 5 5 5 5 5 5 5 0 0 4 5 28 16 5 4 2 0 1 3 5 3 4 4 4 4 5 5 5 4 5 5 5 5 33 98 68 5 10 10 14 98 100
5 5 28 5 5 5 5 5 5 5 1 3 1 4 5 4 0 0 0 0 0 0 0 0 2 0 1 2 5 5 5 5 8 32 96 100 92 99 100 100 78 6 7 68
5 70 13 7 12 5 24 5 5 5 0 0 0 1 5 5 5 4 5 5 0 0 3 1 0 0 0 4 5 1 6 87 79 100 100 75 100 46 76 100 100 100 96 36
100 99 100 91 24 8 72 78 39 7 5 4 7 1 5 98 54 45 84 68 55 93 45 41 31 76 71 95 89 30 10 4 4 6 9 59 20 69 100 100 100 100 100 48
100 100 100 100 100 100 100 100 100 100 86 6 29 6 76 69 80 93 78 15 5 17 5 10 23 15 5 5 3 4 3 5 38 61 15 42 45 40 92 100 99 98 80 22
100 100 100 100 100 100 100 100 98 67 84 5 29 8 70 57 96 100 98 76 46 28 12 5 5 4 3 9 20 5 14 11 6 22 44 84 100 100 99 100 94 75 80 80
100 100 100 100 100 100 100 100 100 45 48 54 33 97 93 100 100 100 100 100 100 100 100 98 24 12 5 5 5 5 5 5 10 82 100 37 18 79 16 29 84 10 13 65
100 100 100 100 100 100 100 100 100 100 100 100 87 99 100 100 100 100 100 93 9 5 6 6 6 5 5 5 5 7 5 6 6 17 5 5 5 8 5 5 9 4 26 4
100 100 100 100 100 100 100 100 100 100 100 100 100 100 100 100 100 100 100 100 93 49 17 5 17 5 5 16 90 25 5 4 5 4 5 20 18 4 4 0 0 3 7 6
100 100 100 100 100 100 100 100 100 100 100 98 93 97 100 100 100 100 83 100 95 81 93 5 29 19 51 83 94 5 3 5 6 12 28 68 12 10 48 3 1 0 0 0
100 100 100 100 100 100 100 100 100 100 100 54 5 73 100 60 100 68 95 7 26 86 99 35 85 99 100 100 82 5 5 6 63 30 8 23 100 68 8 0 0 0 0 0
100 100 100 100 100 100 100 100 100 100 100 98 26 45 91 75 20 10 5 5 4 21 60 92 100 100 100 34 5 16 100 31 95 100 94 36 5 0 0 0 0 3 5 5
100 100 100 100 100 100 100 100 100 93 100 96 34 57 95 72 70 37 5 5 64 100 93 100 100 100 51 5 5 30 100 100 73 20 15 0 0 0 0 2 5 5 5 1
100 100 99 100 100 96 100 100 100 100 100 100 100 85 100 100 99 10 5 100 100 99 100 90 52 89 98 10 11 100 31 5 5 2 0 0 0 2 3 5 5 0 0 0
100 100 100 100 100 100 100 100 100 100 87 76 100 68 100 68 9 97 100 98 87 100 100 100 100 100 9 56 83 5 56 5 0 0 5 5 5 5 5 5 0 0 0 0
100 100 100 100 100 100 62 100 45 12 37 79 36 88 100 100 100 100 100 100 100 100 100 100 99 12 25 12 25 93 5 5 5 5 5 5 5 5 4 2 0 0 0 0
75 100 100 100 100 100 58 100 78 66 36 97 100 100 100 100 81 100 100 99 100 100 100 97 29 88 59 44 72 8 5 5 5 5 5 5 4 3 5 2 1 0 0 0
99 100 100 100 100 73 4 24 100 100 97 100 100 100 100 100 100 100 100 100 100 71 61 100 100 97 47 100 7 3 5 5 5 4 5 5 3 5 0 4 4 4 4 5
100 100 100 100 100 95 6 100 6 61 34 100 100 100 100 91 91 91 100 100 100 49 100 92 26 100 5 1 0 5 5 5 0 5 5 1 5 5 5 5 5 5 7 5
100 100 100 100 100 89 61 100 100 100 100 100 73 100 100 100 95 76 100 100 100 100 100 95 37 2 0 1 5 5 5 2 4 5 3 5 23 5 65 5 24 5 5 5
100 100 100 100 100 100 100 100 100 100 100 100 100 80 77 58 99 100 100 100 46 64 13 5 0 0 0 4 5 5 4 4 5 5 5 47 94 39 35 21 100 60 66 10
100 100 100 100 100 100 100 100 100 100 100 71 14 33 97 99 65 99 92 12 5 4 0 0 0 0 4 5 5 5 5 5 5 5 5 65 98 100 86 85 99 98 100 62
100 100 100 100 100 100 100 100 100 98 85 100 100 85 92 100 61 13 5 3 0 0 0 2 5 5 5 5 5 4 5 5 5 5 5 96 100 100 90 100 87 96 100 50
100 100 100 100 100 100 100 100 100 100 100 100 98 36 33 5 5 1 0 0 0 0 5 6 54 5 5 5 5 5 5 5 8 5 7 76 97 100 100 100 100 100 100 80
100 100 100 100 100 100 100 100 100 100 100 76 23 5 4 0 0 0 0 0 0 0 5 5 18 19 5 5 50 5 8 71 77 32 67 100 66 99 99 100 100 100 91 100

GFSCGP_prec_cloud_039.txt.gz
Cloud_Cover
37 81 100 5 5 76 5 5 5 5 5 5 5 5 3 5 5 5 5 0 0 0 0 0 0 0 0 0 0 0 0 12 33 34 34 51 0 1 13 5 5 5 5 22
56 96 95 11 7 12 5 5 5 3 5 5 5 5 5 5 5 1 0 0 0 2 2 5 5 0 0 0 0 0 0 3 0 0 0 0 0 4 5 3 8 26 5 4
16 68 66 73 5 5 5 4 5 5 5 11 6 25 41 9 3 0 3 5 2 3 5 2 5 1 1 2 2 3 4 3 5 5 2 2 0 0 0 3 26 54 79 99
6 91 60 14 37 32 5 5 5 5 5 10 19 24 89 20 5 9 9 5 4 0 0 2 3 2 5 5 28 97 13 27 9 2 3 0 2 0 5 5 5 22 37 28
91 73 100 92 100 100 100 100 36 7 3 5 100 100 100 99 97 39 53 5 1 5 5 5 3 5 5 5 57 37 7 30 5 10 5 5 3 6 14 5 4 75 60 84
96 100 100 100 100 100 99 92 65 7 16 51 100 100 78 100 100 100 39 43 54 61 98 95 31 5 28 61 7 5 14 99 97 38 17 16 63 74 76 50 12 23 42 51
100 100 53 74 100 100 100 100 68 96 100 100 100 100 100 100 100 100 100 100 87 100 100 100 100 100 100 88 96 99 96 26 21 8 5 77 89 98 99 100 96 89 13 5
100 100 82 100 100 100 100 100 100 100 100 100 100 100 100 100 100 100 100 100 100 100 100 100 100 100 100 100 96 54 100 99 99 88 95 100 82 96 86 79 61 88 46 9
100 100 100 100 100 100 100 100 100 100 91 48 99 100 100 100 100 100 100 100 100 100 100 100 100 100 99 100 100 96 48 14 87 89 86 87 41 61 6 7 5 48 42 33
100 100 100 100 100 100 100 100 100 100 85 71 94 83 100 99 100 100 100 100 96 98 79 86 85 97 36 7 74 42 4 5 6 42 8 18 5 42 5 5 5 5 5 8
100 100 100 100 100 100 100 100 100 100 100 100 100 100 100 100 100 100 100 100 100 100 88 5 6 46 67 22 84 7 5 5 15 5 91 13 21 5 4 14 5 7 8 5
100 100 100 100 100 100 100 100 100 100 100 100 100 100 100 100 100 100 100 100 100 100 100 100 46 57 54 11 5 5 5 5 6 96 98 96 87 5 2 5 32 51 44 3
100 100 100 100 100 100 100 100 100 100 100 100 100 100 100 100 100 100 100 100 100 98 65 69 93 48 72 42 42 18 21 14 5 17 43 57 19 5 5 30 8 4 0 0
100 100 100 100 100 100 100 100 100 100 100 100 100 100 100 100 100 100 100 100 100 100 71 15 45 84 38 7 23 100 100 86 100 33 78 52 27 4 5 4 0 0 0 0
100 100 98 100 100 100 100 100 100 100 100 94 85 72 100 100 99 100 100 100 20 23 15 74 12 5 95 87 29 74 100 100 56 9 8 5 6 4 0 0 0 0 0 0
100 100 100 80 94 100 78 100 100 100 100 100 100 100 100 100 100 99 58 6 7 32 30 22 90 100 87 100 100 100 66 5 96 76 1 4 0 5 4 0 0 0 0 0
100 100 100 100 100 100 99 100 100 100 92 100 92 93 95 100 100 96 12 21 50 56 99 100 100 99 100 100 100 5 5 5 2 1 5 5 5 5 0 0 0 0 0 0
100 100 100 100 100 100 9 48 92 82 63 92 100 100 100 99 39 70 59 100 100 31 100 100 100 99 100 64 14 73 15 5 5 5 5 5 5 4 0 0 0 0 0 0
100 100 100 100 100 100 28 12 99 100 75 100 100 100 100 80 82 100 100 22 98 100 100 59 93 100 71 40 9 6 22 5 5 5 5 5 4 5 0 0 0 0 0 1
100 100 100 100 100 100 68 100 100 100 52 100 100 100 100 100 59 100 100 100 100 100 100 100 100 99 76 88 63 11 5 5 5 5 2 5 5 5 5 0 5 5 4 4
100 100 100 100 100 100 100 100 100 100 100 100 100 100 100 100 100 100 100 100 100 100 98 88 81 100 100 94 56 38 5 4 2 5 5 5 5 5 4 5 52 5 5 5
100 100 100 100 100 100 100 100 100 100 100 100 100 100 100 100 100 100 100 100 100 100 100 100 100 100 96 90 6 5 4 2 5 5 5 5 5 3 5 5 99 68 69 5
100 100 100 100 100 100 100 100 100 100 100 100 100 100 100 100 100 100 100 100 100 100 100 100 100 99 72 7 5 5 2 5 5 5 5 5 5 5 5 5 5 26 69 5
100 100 100 100 100 100 100 100 100 100 100 100 100 100 100 100 100 100 100 100 100 100 100 82 33 5 1 5 5 5 5 5 5 5 9 5 5 5 5 82 83 67 5 5
100 100 100 100 100 100 100 100 100 100 100 100 100 100 84 51 59 60 91 98 78 54 58 8 4 0 0 5 5 63 5 5 5 13 5 5 70 94 12 69 92 38 45 28
100 100 100 100 100 100 100 100 100 100 100 96 71 94 100 100 100 77 68 100 92 81 9 5 5 5 5 5 5 5 27 5 5 5 14 5 51 82 49 93 98 89 69 99

GFSCGP_prec_cloud_042.txt.gz
Cloud_Cover
36 80 100 5 5 5 5 5 21 22 0 5 5 1 0 2 1 5 5 5 5 0 0 0 0 0 0 3 97 100 100 100 100 99 56 22 0 0 0 0 0 0 0 0
100 100 52 5 5 5 24 15 79 13 0 0 5 14 2 1 5 5 5 5 5 5 5 5 5 3 0 0 0 2 5 12 6 1 0 0 0 0 0 0 0 0 0 0
6 45 100 97 80 5 5 7 76 5 0 0 5 8 16 5 18 57 73 48 44 5 5 12 5 4 0 0 0 0 4 5 4 5 5 4 5 5 36 2 0 1 0 3
48 91 100 100 46 21 0 5 4 1 0 0 2 10 99 97 100 100 100 100 48 5 0 2 3 5 5 5 5 5 6 38 46 50 37 20 83 16 7 6 8 5 5 5
100 100 100 84 100 36 5 5 5 7 5 4 11 62 95 100 100 100 100 100 47 65 43 44 66 97 40 12 99 100 100 100 100 100 99 100 100 98 48 8 72 9 43 30
15 36 73 100 98 97 24 46 100 73 5 4 93 98 5 100 100 100 100 100 100 87 17 100 100 100 37 93 100 100 100 100 100 100 100 100 100 100 100 99 100 51 28 55
100 87 31 67 100 100 100 92 42 31 5 5 47 33 12 95 100 100 100 100 100 100 100 100 100 100 76 100 100 100 100 100 100 100 100 83 100 78 95 27 3 5 23 5
5 20 97 100 100 100 100 100 100 25 33 5 4 1 17 100 100 100 100 100 100 100 100 100 100 100 100 100 100 100 98 37 15 4 5 4 39 13 28 76 6 5 5 6
97 19 94 100 100 100 95 93 100 99 8 6 14 42 79 100 100 100 100 100 100 100 100 100 100 100 100 100 100 100 100 98 100 96 20 10 5 5 8 10 27 6 26 6
100 97 100 100 100 100 100 100 100 100 66 68 98 100 100 100 100 100 100 100 100 100 100 100 100 100 100 100 100 100 100 100 24 8 6 54 75 39 34 15 36 26 71 8
100 100 100 100 100 100 100 100 100 100 100 100 100 100 100 100 100 100 100 100 100 100 100 100 100 100 100 100 100 100 100 100 100 5 100 56 41 66 58 22 5 17 5 5
100 100 100 100 100 100 100 100 100 100 100 100 100 100 100 100 100 100 100 100 100 100 100 100 100 100 100 100 100 100 100 57 91 50 11 7 6 92 7 5 5 2 5 5
100 100 100 100 100 100 100 100 100 100 100 100 100 98 100 98 100 100 100 100 100 100 100 100 100 100 100 91 67 59 7 5 1 1 7 38 77 94 24 3 2 4 0 3
100 100 100 100 100 100 84 100 100 100 100 100 100 100 100 100 100 100 100 100 100 100 100 100 100 100 93 22 54 8 5 5 57 5 50 38 58 0 2 5 0 5 3 3
100 100 100 100 100 93 92 42 88 100 100 88 90 100 100 100 100 100 100 100 100 100 100 100 100 99 100 96 100 9 53 47 18 83 96 46 5 0 0 0 0 0 0 0
100 100 100 100 100 60 60 17 100 100 100 96 100 100 100 100 100 100 78 6 54 100 87 100 100 100 10 46 98 100 65 14 24 5 5 5 5 0 0 0 2 0 0 0
100 100 100 88 100 100 100 80 77 100 100 99 84 99 100 100 100 100 51 100 100 100 88 94 100 12 94 100 98 39 90 83 8 43 97 94 5 5 5 5 0 0 0 0
100 100 100 100 100 100 14 72 43 94 90 100 87 92 100 100 100 100 52 96 96 91 100 75 93 81 85 100 98 100 88 76 10 60 16 33 5 34 5 1 0 0 0 0
100 100 100 100 100 77 7 10 69 100 80 100 100 100 100 100 100 96 100 100 100 98 100 100 100 100 97 100 100 52 27 81 100 98 70 39 100 5 5 0 0 0 0 0
100 100 100 100 100 97 5 7 100 100 90 86 100 100 100 100 95 100 100 100 100 100 100 100 100 100 100 100 100 100 100 100 100 69 100 96 6 5 5 0 0 0 0 0
100 100 100 100 100 99 100 100 97 100 98 100 100 100 100 100 100 99 100 100 100 100 100 100 100 100 100 100 100 100 100 100 100 95 35 9 5 5 0 0 0 5 4 5
100 100 100 100 100 100 86 100 100 100 100 100 100 100 100 100 100 100 100 100 100 100 100 100 100 100 100 100 100 100 100 95 20 36 5 5 5 0 2 5 5 5 5 5
100 100 100 100 100 100 100 100 100 100 100 100 100 100 100 100 100 100 100 100 100 100 100 100 100 100 100 100 100 100 97 12 5 5 5 5 5 5 5 5 5 2 5 5
100 100 100 100 99 100 100 100 100 100 100 100 100 100 100 100 100 100 100 100 100 100 100 100 100 100 100 100 99 26 5 5 5 5 5 5 5 5 5 5 5 5 48 32
100 100 100 100 100 100 100 100 100 100 100 100 100 100 100 100 100 100 100 100 100 100 100 100 100 100 100 58 32 5 5 5 5 7 87 95 96 87 75 52 5 21 11 5
100 100 100 100 100 100 100 100 100 100 100 100 100 100 100 100 100 100 100 100 100 100 98 92 100 97 58 8 5 5 5 5 17 79 100 100 100 90 59 12 5 7 28 83

GFSCGP_prec_cloud_045.txt.gz
Cloud_Cover
54 53 93 17 16 4 5 5 6 12 0 0 0 0 5 5 0 5 5 0 0 0 3 5 2 0 100 100 100 100 100 100 100 100 100 93 8 1 0 0 0 0 0 0
99 10 90 5 7 10 5 5 92 6 2 0 0 3 0 3 0 5 1 5 5 5 5 5 1 0 66 100 100 100 100 98 48 0 0 0 0 0 0 2 4 5 4 1
100 100 91 82 20 94 21 5 98 5 2 0 2 2 0 0 4 0 0 0 0 0 12 83 79 29 6 56 59 48 39 35 6 1 3 4 5 50 35 100 98 29 62 56
17 77 100 96 61 64 6 3 5 5 0 0 0 2 5 4 2 4 4 0 4 5 6 14 11 5 5 5 5 24 22 24 55 70 97 99 100 48 47 97 100 95 98 66
30 62 49 94 100 95 13 56 22 5 3 0 1 3 56 7 100 90 5 5 9 20 6 75 100 100 100 46 82 100 100 100 100 98 100 71 20 66 100 100 78 53 0 0
94 22 84 68 92 31 5 42 96 18 3 3 28 5 3 13 100 94 90 99 36 63 100 100 100 100 100 100 100 100 100 100 100 100 100 100 100 100 100 100 10 5 3 0
100 93 49 100 83 16 80 92 39 21 38 9 5 44 3 60 100 100 100 67 78 90 100 72 86 54 13 53 95 100 100 100 100 100 100 100 100 100 96 71 70 70 32 42
95 78 28 98 100 53 4 49 99 87 64 91 87 6 29 100 96 100 100 100 100 100 100 100 100 100 98 71 60 100 100 100 100 100 100 100 100 100 100 100 100 96 40 5
97 68 37 5 17 91 5 6 100 100 100 44 47 94 63 99 100 100 100 100 100 100 100 100 51 52 100 100 100 100 100 100 100 100 100 100 100 100 100 100 100 89 9 5
84 40 5 5 5 63 42 98 100 100 98 80 5 5 56 93 94 100 100 100 100 100 100 93 100 100 100 100 100 100 100 100 100 100 100 100 100 100 100 83 17 5 5 5
100 100 9 5 14 91 67 65 100 100 100 93 89 85 100 100 100 100 100 100 100 100 100 100 100 100 100 100 100 100 100 100 100 100 97 100 100 100 94 48 30 5 35 35
100 100 100 82 13 94 67 35 96 100 100 100 88 81 100 100 100 100 100 100 100 100 100 100 100 100 100 100 100 100 100 100 100 100 100 100 100 100 82 36 41 13 13 10
100 100 100 96 69 66 100 100 100 100 100 21 20 39 100 100 99 85 100 100 100 100 100 100 100 100 100 100 100 100 100 100 100 100 100 100 100 90 99 44 71 4 15 54
100 100 98 100 100 100 98 100 100 100 94 100 44 99 99 100 89 100 100 98 99 100 100 100 100 100 100 100 100 100 100 100 100 100 60 27 18 9 7 6 5 6 5 5
100 100 100 100 100 100 100 100 100 100 95 86 41 90 100 100 100 100 93 72 98 100 100 100 100 100 100 100 100 100 100 100 95 47 18 12 94 43 16 5 8 32 2 0
100 100 100 100 100 100 100 27 58 100 100 100 100 26 100 100 100 100 100 100 75 81 100 100 93 90 100 100 100 93 53 96 99 91 78 85 9 12 5 5 5 3 0 5
100 100 100 100 100 100 100 43 97 89 100 100 69 21 100 100 93 88 100 100 100 100 78 96 66 100 100 96 70 15 74 57 46 100 18 24 5 6 13 5 26 5 5 5
100 100 100 93 100 100 62 100 100 100 100 89 80 43 86 100 100 100 97 100 100 100 100 100 92 99 95 56 62 84 92 100 92 49 68 64 45 67 75 100 28 6 5 2
100 100 100 100 100 76 9 92 100 100 100 100 100 100 100 100 64 48 94 100 100 100 100 100 100 98 100 100 93 80 96 98 94 100 98 100 100 100 99 45 53 5 5 4
100 100 100 100 100 92 49 100 96 98 6 100 100 100 100 97 74 100 100 100 100 93 100 100 100 100 100 100 100 100 98 100 100 100 100 100 100 100 97 21 11 5 5 3
100 100 100 100 100 99 98 76 38 59 52 69 64 64 94 100 100 100 100 98 100 100 100 100 100 100 100 100 100 100 100 100 100 100 100 100 91 65 90 78 20 5 5 0
100 100 100 100 100 100 15 66 94 64 79 64 57 66 100 100 100 100 100 100 100 100 100 100 100 100 100 100 100 100 100 100 100 100 100 89 82 78 5 5 5 5 5 5
100 100 100 100 100 100 99 100 100 100 100 100 85 62 22 86 85 91 99 100 100 100 100 100 100 100 100 100 100 99 93 100 100 100 100 100 55 10 6 5 5 5 5 5
100 100 100 100 100 100 100 100 100 100 100 100 100 100 94 78 100 100 100 100 100 100 100 100 100 100 100 100 100 100 100 100 100 100 100 72 20 5 6 5 27 33 5 5
100 100 100 100 100 100 100 100 100 100 99 100 100 100 100 100 100 100 100 100 100 100 100 100 100 100 100 100 100 100 100 100 100 100 99 5 5 28 13 8 52 5 5 5
100 100 100 100 100 100 100 100 100 100 100 100 100 100 100 100 100 100 100 100 100 100 100 100 100 100 100 100 100 100 100 100 94 17 5 5 15 96 94 56 5 5 5 5

GFSCGP_prec_cloud_048.txt.gz
Cloud_Cover
28 5 94 89 5 47 1 2 5 4 0 0 0 0 0 3 3 5 5 0 0 0 0 0 0 1 78 100 100 100 100 100 100 100 100 100 100 99 30 0 0 0 0 0
100 100 100 14 7 5 2 4 0 2 0 0 0 0 0 3 7 4 5 0 0 0 0 0 0 5 84 100 100 100 100 100 100 100 100 89 34 3 1 0 3 1 2 69
89 100 100 100 100 12 43 4 5 4 0 0 0 0 0 2 4 34 2 1 0 0 0 0 4 3 70 100 100 100 100 100 73 31 8 16 39 21 44 25 21 70 100 100
66 100 63 100 39 78 34 79 4 5 0 0 0 1 3 5 0 83 17 1 4 0 4 5 5 5 45 100 100 100 96 60 82 100 100 100 100 100 100 100 100 100 100 98
78 70 96 70 100 26 5 5 5 5 0 0 1 0 95 31 5 5 4 5 5 5 5 0 0 5 5 39 99 100 100 100 98 99 100 100 100 100 100 100 68 29 100 100
100 99 67 100 100 94 5 5 5 2 0 2 4 1 0 94 97 64 4 0 0 2 4 4 5 5 5 22 62 72 99 100 100 100 100 100 100 100 100 100 100 100 100 100
100 100 97 97 90 99 85 8 5 4 5 4 2 0 0 4 67 100 100 82 34 8 21 32 14 5 17 69 100 100 100 100 100 100 100 100 100 100 100 100 100 100 100 98
100 100 100 95 100 100 74 31 76 5 5 0 1 1 2 7 79 16 70 100 100 98 40 5 18 66 91 100 94 100 100 100 100 100 100 100 100 100 100 100 100 100 100 100
100 75 5 89 100 98 5 4 94 18 5 5 0 0 4 88 100 100 100 100 100 90 38 40 71 84 65 50 100 100 100 100 100 100 100 100 100 100 100 100 100 100 100 100
100 51 5 12 100 100 18 30 97 65 16 19 1 5 5 60 100 100 100 68 79 87 92 91 80 34 11 28 90 81 100 100 100 100 100 100 100 100 100 100 100 100 100 100
100 93 22 41 6 99 84 5 48 93 56 5 4 1 0 36 94 100 100 100 100 100 100 79 75 100 100 100 100 100 100 100 100 100 100 100 100 100 100 100 100 100 100 100
100 100 80 86 100 99 99 67 100 100 100 14 5 21 5 87 100 100 100 100 100 100 100 100 100 100 100 100 100 100 100 100 100 100 100 100 100 100 100 97 75 100 90 51
100 100 100 99 69 93 100 100 100 100 81 6 87 34 31 99 13 19 96 100 88 20 98 100 100 100 100 100 100 100 100 100 100 100 100 100 100 99 100 97 77 29 17 5
100 100 100 100 100 100 100 100 100 100 75 70 12 93 74 93 8 36 68 86 100 100 100 100 100 100 100 100 100 100 100 98 75 47 43 56 35 22 22 59 60 6 10 17
100 100 100 100 100 100 100 100 100 100 99 77 87 56 100 100 100 100 100 100 100 100 100 100 86 100 100 69 98 100 100 94 22 6 5 5 11 5 5 5 10 92 8 6
100 100 100 99 100 100 100 90 12 45 61 69 63 48 100 100 100 100 100 100 100 99 99 100 100 74 100 100 100 100 100 99 83 57 78 5 5 35 58 67 70 74 5 5
100 100 100 94 100 100 100 52 47 54 28 56 8 52 100 100 100 100 100 100 100 97 92 92 100 100 93 100 100 96 71 26 25 84 96 92 95 87 89 77 99 5 12 24
100 100 100 98 100 100 14 56 64 86 20 48 48 91 100 98 100 100 100 100 100 100 92 99 74 89 98 100 95 96 94 86 100 100 100 100 93 100 84 98 58 94 85 100
100 100 100 100 100 44 5 26 100 98 63 81 98 99 89 100 100 100 100 100 100 100 100 82 100 100 100 100 100 100 100 100 99 100 100 100 100 76 90 100 100 100 100 38
100 100 100 100 100 91 7 23 18 32 6 99 100 100 100 100 100 100 100 100 100 100 99 100 100 100 100 100 100 100 100 100 100 100 100 92 100 100 100 100 100 95 77 98
100 100 100 100 100 97 99 98 86 94 25 90 100 100 100 100 100 100 100 100 100 100 100 100 100 100 96 98 100 100 100 100 100 100 100 100 100 100 100 100 83 100 98 82
100 100 100 100 100 100 80 91 100 100 100 100 100 100 100 100 100 100 100 100 100 100 100 100 100 100 98 100 100 100 100 100 97 100 100 100 100 85 100 100 100 100 96 100
100 100 100 100 100 100 95 100 100 100 99 70 74 50 95 100 100 100 100 100 100 78 100 100 96 100 100 100 100 100 100 100 100 99 67 100 100 100 100 100 100 100 96 98
100 100 100 100 100 100 100 100 100 100 100 100 83 64 100 100 99 99 99 95 100 100 100 81 70 70 100 100 100 100 100 100 100 100 100 100 100 100 100 100 100 77 42 26
100 100 100 100 100 100 100 100 100 100 100 100 98 75 54 87 99 98 99 100 92 62 36 89 100 82 71 75 100 98 100 100 100 96 86 100 100 100 100 100 83 32 52 84
100 100 100 100 100 100 100 100 100 100 100 100 100 100 100 100 100 100 100 99 98 65 17 49 49 23 90 100 88 100 100 92 100 100 100 91 98 100 100 59 9 39 82 88

GFSCGP_prec_cloud_051.txt.gz
Cloud_Cover
19 99 100 91 8 5 5 0 1 5 0 0 0 0 0 1 0 0 0 0 0 0 0 0 0 0 0 0 3 41 64 100 100 100 100 100 100 100 100 12 5 5 5 8
100 100 100 100 99 55 50 4 2 0 0 0 0 0 0 1 5 3 0 5 1 2 0 0 0 0 0 0 26 65 51 97 100 100 100 100 100 100 100 98 98 100 100 100
100 100 100 100 100 24 53 9 5 0 0 0 0 4 0 5 5 5 5 4 5 1 0 4 4 0 0 0 14 56 87 100 100 100 100 100 100 100 100 94 100 100 100 100
100 100 100 100 100 100 46 74 5 5 0 0 0 3 5 5 5 49 87 0 2 5 0 0 0 0 0 5 52 76 37 100 100 100 100 100 100 100 100 100 91 49 90 90
51 94 100 94 100 99 5 5 2 0 0 0 1 0 98 46 36 10 5 2 5 7 42 5 8 5 5 29 100 100 100 100 100 100 100 100 100 97 81 66 48 10 8 60
100 100 100 100 100 100 5 9 5 0 0 0 5 0 74 73 100 100 23 5 0 1 1 5 5 4 5 66 100 100 100 98 34 8 98 100 95 100 100 100 100 100 100 100
100 100 100 100 100 100 100 90 6 1 0 0 0 0 2 5 5 39 35 13 5 3 5 5 6 7 34 33 91 98 51 13 31 98 94 66 61 94 99 96 93 100 100 100
100 78 84 21 90 100 99 5 4 6 1 2 0 0 0 0 0 5 5 20 56 68 7 55 34 28 38 5 12 7 63 100 100 100 85 83 100 99 88 95 100 100 100 100
100 100 100 78 75 100 6 2 100 44 5 22 0 0 5 4 0 3 6 5 5 55 98 78 5 5 6 23 63 96 100 98 65 64 81 70 100 100 100 100 100 100 100 100
100 58 83 96 100 100 68 61 91 29 5 37 3 0 0 0 2 5 64 6 5 5 5 5 5 5 5 75 100 72 11 5 11 58 100 100 100 100 100 100 100 100 100 100
100 100 30 39 7 15 78 26 17 71 14 6 4 0 0 4 4 39 100 100 99 5 5 5 4 4 5 15 38 55 52 90 100 100 89 80 96 100 100 100 100 100 55 60
100 100 100 100 99 34 6 55 30 68 60 3 1 14 0 10 99 100 100 96 100 52 31 40 22 82 71 98 100 100 100 99 20 53 97 99 100 100 100 99 57 23 5 5
100 100 100 100 100 100 100 100 100 100 97 0 5 1 3 53 1 5 5 32 90 71 49 90 100 100 100 66 70 100 100 100 100 100 100 100 100 98 75 82 45 5 5 8
100 100 100 100 100 100 100 100 100 100 81 55 20 76 98 100 97 67 24 5 5 5 56 100 100 100 100 100 100 100 100 100 100 87 74 73 95 63 68 30 61 6 5 6
100 92 76 93 90 100 100 100 100 100 92 81 92 68 100 100 100 100 100 67 29 97 100 100 100 100 100 100 100 100 100 100 96 95 97 100 79 76 88 100 74 64 89 83
100 99 100 5 87 100 100 99 100 100 100 73 26 75 100 100 100 100 100 26 5 5 29 100 100 100 100 100 100 100 100 100 100 100 100 100 80 81 95 69 65 100 72 82
100 100 100 79 100 100 100 26 76 66 31 88 32 100 100 100 100 86 100 98 49 42 77 96 100 100 100 100 100 100 100 100 100 100 100 100 100 99 100 100 97 100 99 100
100 100 100 93 100 100 9 5 7 28 5 8 16 58 79 99 100 70 40 86 93 96 100 100 97 100 100 100 100 100 100 100 100 100 100 98 100 100 100 100 100 100 94 87
100 100 100 100 100 46 2 21 44 89 7 46 8 71 100 100 100 64 98 93 69 9 81 100 100 100 100 100 100 100 100 100 100 100 100 100 100 100 100 99 100 100 100 100
100 100 100 100 100 92 5 46 11 65 8 100 100 100 100 100 99 100 100 93 92 34 99 100 100 100 100 100 100 100 100 100 100 100 100 100 100 100 100 100 100 100 100 100
100 100 100 100 100 91 5 37 84 100 56 100 100 100 100 94 99 100 97 100 100 99 100 100 99 99 100 100 100 100 100 100 100 100 100 100 100 100 100 100 100 100 100 100
100 100 100 100 100 100 100 100 100 87 100 100 100 96 100 100 100 100 100 100 100 99 99 98 98 100 100 100 100 100 100 100 98 100 100 100 100 100 100 100 100 100 100 98
100 100 100 100 100 100 100 100 100 100 100 100 100 76 100 100 52 100 100 100 100 100 100 100 100 100 100 70 87 100 100 99 100 100 100 100 100 85 99 94 100 36 34 100
100 100 100 100 100 100 100 100 100 100 100 100 100 100 75 98 100 94 100 100 100 100 100 100 100 100 100 100 100 100 100 100 91 64 38 7 6 64 68 84 49 93 80 99
100 100 100 100 100 100 100 100 100 100 100 100 100 100 89 87 98 100 100 100 97 100 100 98 100 98 87 88 92 99 97 28 5 5 6 43 55 100 100 97 40 52 73 94
100 100 100 100 100 100 100 100 100 100 100 100 100 100 100 100 100 100 100 100 100 99 100 100 100 100 80 94 79 77 36 95 100 99 100 100 100 82 64 92 100 100 100 97

GFSCGP_prec_cloud_054.txt.gz
Cloud_Cover
100 99 100 95 28 8 90 33 6 8 0 0 2 5 0 0 2 0 0 0 0 0 0 0 0 0 0 0 0 0 84 93 66 33 100 100 100 100 100 100 8 12 5 5
100 100 100 100 100 100 100 99 98 13 0 0 4 3 5 0 5 5 3 0 0 0 0 0 0 0 0 0 0 0 55 100 100 100 99 100 100 100 100 100 100 91 61 93
100 100 100 100 100 96 67 50 43 3 2 0 0 2 2 3 3 5 5 1 0 0 0 0 0 0 0 0 4 10 7 50 100 85 100 99 100 100 100 100 62 74 100 100
100 100 100 100 66 73 6 95 6 8 0 0 0 5 16 4 0 3 48 2 2 0 0 0 0 3 5 5 5 10 54 72 99 100 100 100 75 92 100 100 100 100 100 95
100 100 100 100 100 100 100 98 5 0 0 0 0 0 100 5 49 43 5 0 0 0 1 0 0 0 5 5 10 50 78 97 100 100 100 100 100 19 59 100 100 96 98 98
100 100 100 100 100 100 100 60 8 0 0 0 0 0 99 50 100 100 5 0 0 1 1 1 4 4 4 2 58 68 31 100 100 100 100 100 100 78 100 99 79 74 90 71
100 100 100 100 100 100 100 99 42 1 0 0 0 0 83 35 52 66 67 9 0 1 0 0 5 5 5 24 94 21 95 100 100 100 100 100 100 93 100 100 95 90 72 83
100 100 100 100 100 100 100 52 4 1 4 2 0 0 5 5 5 5 8 11 5 5 5 0 0 0 0 2 7 45 100 100 100 100 100 100 88 100 63 7 5 9 94 100
100 79 93 100 99 100 5 1 64 16 31 26 2 0 5 7 7 0 5 4 0 5 5 0 0 0 0 4 5 25 93 100 100 100 77 96 50 5 22 44 54 100 100 100
100 100 100 58 11 5 5 5 8 16 4 21 1 0 0 4 4 8 7 10 5 5 0 0 4 4 3 4 4 5 70 100 83 56 24 40 72 100 100 100 99 92 75 87
98 43 5 100 97 62 49 97 60 46 5 5 5 0 0 0 5 4 5 8 30 19 11 5 3 5 5 5 5 6 56 64 30 5 84 100 100 100 100 100 100 100 100 97
100 99 8 5 5 11 73 100 63 7 5 96 4 2 0 2 4 2 5 5 33 72 30 6 11 5 5 5 5 5 5 5 5 41 82 68 100 100 100 100 100 55 39 7
100 100 98 76 44 24 23 82 100 100 92 3 3 1 6 0 1 4 17 33 5 5 5 4 0 5 6 63 50 82 60 74 9 100 100 92 74 100 100 100 96 100 91 98
100 100 100 95 100 100 100 100 100 100 25 3 3 4 90 100 61 25 13 0 3 5 5 3 5 4 6 88 91 98 100 100 100 100 100 100 100 100 100 100 100 100 100 100
100 100 93 53 100 100 100 100 100 100 58 25 4 1 100 100 97 100 12 13 62 88 87 100 100 67 92 47 90 100 100 100 100 100 100 100 100 100 100 100 100 100 100 100
100 85 96 82 100 100 100 100 100 100 100 100 93 8 100 100 100 100 100 100 96 20 5 18 94 80 52 53 5 52 96 94 100 100 100 100 100 100 100 100 100 100 100 100
100 100 100 82 96 100 100 8 72 93 100 100 95 95 100 100 100 100 100 100 100 92 80 91 60 78 79 98 100 100 100 100 100 100 100 100 100 100 100 100 100 100 100 100
100 100 100 100 100 100 14 54 5 8 91 77 57 60 69 62 69 90 100 91 61 70 30 31 99 100 100 100 100 92 94 100 100 100 100 100 100 100 100 100 100 100 100 100
100 100 100 100 100 98 23 56 100 96 93 100 100 100 97 56 5 59 95 92 7 5 34 68 93 100 100 100 100 98 100 100 100 100 100 100 100 100 100 100 100 100 100 100
100 100 100 100 100 100 5 100 100 100 52 100 100 100 100 59 5 96 31 18 45 98 100 100 100 100 100 100 100 100 100 100 100 100 100 100 100 100 100 100 100 100 100 100
100 100 100 100 100 100 58 49 84 99 63 88 90 93 77 31 12 24 5 12 16 51 97 100 98 100 100 100 100 100 100 100 100 100 100 100 100 100 100 100 100 100 100 100
100 100 100 100 100 100 100 100 99 81 59 61 15 32 72 74 49 77 79 92 100 100 91 100 100 99 91 100 100 100 100 100 100 100 100 100 100 100 100 100 100 100 100 100
100 100 100 100 100 100 100 100 100 100 100 100 74 75 80 67 8 12 72 89 91 100 100 100 100 100 100 100 100 100 100 100 97 100 100 100 98 100 100 100 100 100 100 100
100 100 100 100 100 100 100 100 100 100 100 100 100 100 100 100 80 71 100 100 100 100 100 100 100 100 100 95 90 100 88 82 94 90 80 92 99 100 100 100 100 100 100 100
100 100 100 100 100 100 100 100 100 100 100 100 100 100 100 100 100 100 100 100 80 75 83 44 43 59 83 90 93 100 100 100 98 98 100 100 100 100 100 100 100 100 100 100
100 100 100 100 100 100 100 100 100 100 100 100 100 100 100 100 100 100 100 100 100 95 80 80 77 80 99 100 94 84 61 82 100 100 100 100 99 100 100 100 100 100 100 100

GFSCGP_prec_cloud_057.txt.gz
Cloud_Cover
41 32 98 95 5 58 45 5 8 99 6 0 0 4 5 5 5 5 5 0 0 0 0 0 0 0 0 1 19 5 98 96 100 100 100 100 100 100 100 100 100 100 100 37
100 100 100 100 100 97 8 6 56 6 2 5 3 4 5 5 5 5 5 5 0 0 0 0 0 0 0 4 16 11 81 100 98 92 100 100 100 100 100 100 100 100 50 6
100 100 100 100 100 100 100 12 69 5 5 2 0 0 1 5 16 9 5 4 0 0 0 0 0 0 0 9 31 23 19 100 100 100 45 60 100 100 100 100 100 100 63 5
100 100 100 100 100 100 100 60 24 60 3 0 0 0 5 18 19 9 5 0 0 0 0 0 0 0 0 0 8 4 14 21 99 78 39 99 99 94 100 100 100 100 17 5
100 100 100 100 100 100 44 100 67 5 0 0 0 0 23 100 98 47 2 0 0 0 0 0 0 0 0 2 23 11 21 82 32 100 100 100 100 100 100 100 100 100 25 14
100 100 100 100 100 100 95 8 50 10 0 0 0 0 95 82 78 97 4 0 0 0 0 0 0 0 0 1 32 19 73 100 49 44 84 100 100 100 100 100 100 78 64 25
100 96 100 100 100 100 100 100 100 7 0 0 0 0 83 100 34 5 5 1 0 0 0 0 0 0 5 12 46 56 100 100 84 61 98 100 100 100 100 100 100 74 80 60
100 100 100 100 100 100 100 100 24 7 4 0 0 0 0 6 95 0 5 5 5 0 0 0 0 0 0 0 16 53 100 100 41 88 100 100 100 100 100 100 96 92 98 72
100 90 100 100 100 100 86 26 82 58 24 10 0 0 0 4 5 5 0 0 4 5 1 0 0 0 0 0 0 48 100 93 15 100 100 100 100 100 100 100 97 96 10 19
100 48 47 76 100 69 60 78 64 76 7 4 0 0 4 10 5 5 2 0 0 0 0 0 0 3 1 0 0 54 97 16 14 100 100 100 100 100 100 89 30 54 100 100
100 81 27 5 5 16 100 63 88 8 2 2 4 7 5 6 5 5 5 5 1 0 0 0 0 1 2 0 0 16 62 0 49 100 100 100 100 100 94 34 100 100 90 99
100 98 7 10 19 10 5 5 5 5 5 26 5 23 29 1 1 5 0 0 0 0 3 5 5 5 2 4 0 0 0 2 57 100 100 100 100 90 83 100 100 100 100 100
100 99 76 72 15 98 98 100 100 100 100 100 60 17 40 9 87 68 0 0 1 5 1 4 5 7 5 5 5 5 0 0 35 92 100 100 93 99 100 100 100 100 100 100
100 100 22 5 27 78 44 84 71 80 58 7 4 41 98 89 58 4 1 0 0 0 0 3 1 1 5 7 8 20 17 33 25 100 100 96 100 100 100 99 100 100 100 100
100 100 96 9 44 12 8 100 100 51 4 4 26 5 100 100 43 42 28 4 0 4 9 56 91 76 100 100 100 100 100 100 88 64 83 100 100 100 86 95 100 100 100 100
100 100 100 100 100 100 100 100 100 100 100 43 55 100 100 94 100 11 5 58 100 93 5 6 74 100 100 100 91 90 78 48 53 63 92 100 100 100 100 100 100 100 95 100
100 100 100 100 100 100 100 100 100 100 100 100 66 45 100 96 73 100 100 100 100 100 100 100 100 77 100 100 97 98 100 61 87 100 100 100 100 100 100 100 100 100 100 100
100 100 100 88 100 100 83 100 100 100 100 100 100 100 100 100 100 98 100 100 100 100 100 100 100 100 100 100 100 90 100 89 100 100 100 100 100 100 100 100 100 100 100 100
100 100 100 100 100 95 39 100 100 100 100 100 100 100 100 100 99 100 100 100 99 100 100 100 100 100 100 91 98 38 52 91 94 98 100 100 100 100 100 100 100 100 100 100
100 100 100 100 100 100 70 100 100 100 100 100 100 100 98 100 97 100 100 54 87 100 100 100 99 100 100 100 61 34 41 100 100 100 100 100 100 100 100 100 100 100 100 100
100 100 100 100 100 87 5 38 99 100 54 100 100 80 44 9 16 67 100 100 100 84 100 75 90 100 100 97 90 52 71 71 93 100 100 100 100 100 100 100 100 100 100 100
100 100 100 100 100 100 10 84 91 100 100 87 86 95 85 100 52 23 76 94 54 86 97 72 66 98 100 100 93 97 99 100 100 100 100 100 100 100 100 100 100 100 100 100
100 100 100 100 100 100 100 100 93 96 100 69 96 100 100 80 70 98 98 99 100 100 100 98 94 52 38 48 91 99 100 100 100 100 100 100 100 100 100 100 100 100 100 100
100 100 100 100 100 100 100 100 100 100 100 100 100 99 82 30 94 100 100 100 100 100 100 100 100 100 100 100 99 100 100 100 100 100 100 100 100 100 100 100 100 100 100 100
100 100 100 100 100 100 100 100 100 100 100 100 100 100 100 100 100 100 100 100 100 100 100 95 97 100 100 100 100 100 100 100 100 100 100 100 100 100 100 100 100 100 100 100
23 11 84 100 100 100 100 100 100 100 100 100 100 100 100 100 100 100 100 100 100 100 100 100 100 100 100 100 100 100 100 100 100 100 100 100 100 100 100 100 100 100 100 100

GFSCGP_prec_cloud_060.txt.gz
Cloud_Cover
24 5 75 93 5 5 5 5 19 56 5 0 0 4 5 0 5 5 5 5 5 5 0 0 0 0 0 0 12 20 41 32 31 100 100 100 100 100 100 100 100 100 96 100
5 6 78 9 5 5 6 11 21 16 5 0 0 4 5 8 5 31 13 4 1 3 0 0 0 0 0 0 10 34 15 10 8 100 100 97 100 100 100 100 100 100 100 100
51 5 60 21 11 66 83 38 46 5 5 2 0 0 5 93 81 100 99 4 0 0 0 0 0 0 0 0 20 43 37 22 0 74 100 62 100 100 100 100 100 100 97 100
51 98 100 100 100 82 62 66 25 66 5 5 0 0 32 89 100 100 100 5 0 0 0 0 0 0 0 0 0 27 31 63 28 51 100 17 24 53 37 98 100 100 100 100
61 100 90 100 100 100 99 100 99 10 5 4 0 0 20 97 100 100 100 28 0 0 0 0 0 0 0 0 8 40 28 89 99 97 93 34 100 11 18 100 100 100 100 100
100 100 100 100 100 100 100 100 100 100 32 0 0 0 70 63 92 100 100 22 0 0 0 0 0 0 0 1 21 78 51 47 100 100 100 100 83 5 43 100 100 100 100 100
100 100 100 100 100 100 100 100 100 69 5 1 0 0 22 100 89 15 19 1 0 0 0 0 0 0 0 27 61 97 80 98 66 91 100 100 69 98 100 100 100 100 100 100
100 100 100 100 100 100 100 100 98 11 21 5 3 0 0 1 48 98 0 5 58 0 0 0 0 0 0 0 56 98 99 100 41 100 85 71 100 100 100 100 100 100 100 100
100 100 100 100 100 100 100 99 100 100 6 2 0 0 0 3 16 94 10 1 0 0 0 0 0 0 0 0 45 88 91 97 21 100 98 29 37 89 100 100 100 100 100 100
100 35 95 81 100 94 21 15 25 53 14 4 0 0 0 5 29 66 93 41 6 0 0 0 0 0 0 0 8 41 29 20 10 100 100 35 1 100 100 100 100 100 100 97
100 94 49 87 44 99 100 87 38 29 3 0 2 0 5 7 12 96 100 93 18 5 1 0 0 0 0 0 0 1 5 16 30 100 100 35 65 100 100 100 100 100 100 100
100 100 91 92 98 100 100 89 31 6 38 12 5 1 72 18 0 14 100 100 100 9 0 0 0 0 0 0 0 1 0 2 48 100 100 85 100 100 100 100 100 100 100 95
100 96 27 6 24 13 62 98 95 64 42 5 0 11 100 14 67 56 5 17 48 6 16 5 2 2 2 0 2 1 0 0 56 100 93 100 100 100 100 100 100 100 94 100
100 100 82 5 16 21 10 78 100 100 98 52 72 100 100 100 100 30 3 3 5 7 22 5 5 7 52 100 86 8 5 5 63 90 88 98 100 100 100 100 100 100 100 100
100 100 100 97 100 100 100 100 100 39 54 65 87 12 100 100 100 99 100 100 77 6 5 14 58 100 100 29 5 5 78 94 81 94 99 100 98 100 100 100 100 100 100 100
100 100 100 100 100 100 100 100 81 53 52 98 44 29 100 100 100 100 72 30 54 98 82 83 100 100 100 90 100 95 99 100 100 100 100 100 100 100 100 100 100 100 100 100
100 100 100 100 100 100 100 5 73 84 94 100 53 79 100 100 100 100 100 100 69 9 20 98 100 100 100 100 100 100 100 100 100 100 100 100 100 100 100 100 97 100 100 100
100 96 100 88 98 100 100 100 100 100 100 100 80 97 100 100 79 41 26 89 100 100 47 87 91 100 100 100 100 100 100 100 100 100 100 100 100 100 100 100 100 100 100 100
100 100 100 100 100 89 88 100 100 100 100 100 100 100 100 100 100 100 100 100 100 100 100 96 100 100 100 100 100 100 100 100 100 100 97 100 100 100 100 100 100 100 100 100
100 100 100 100 100 100 6 52 50 100 100 100 100 100 100 100 96 96 100 100 100 100 100 100 100 100 100 100 100 100 100 100 100 97 12 98 100 100 100 100 100 100 100 100
100 100 100 100 100 100 4 3 58 98 26 37 100 100 100 100 100 100 100 100 100 100 100 100 100 100 100 100 100 91 100 100 100 100 99 100 100 100 100 100 100 100 100 100
100 100 100 100 100 99 7 24 23 87 100 100 100 100 100 100 100 100 100 100 79 100 99 93 100 100 100 100 68 68 98 93 71 72 100 100 100 100 100 100 100 100 100 100
100 100 100 100 100 100 100 98 94 28 70 73 74 100 100 100 99 99 100 100 100 25 64 100 100 99 91 97 95 100 100 95 66 99 100 100 100 100 100 100 100 100 100 100
99 100 100 100 100 100 100 100 100 100 100 51 79 87 100 100 95 100 100 100 100 100 98 82 100 100 100 100 100 92 63 89 100 100 100 100 100 100 100 100 100 100 100 100
97 100 100 100 100 100 100 100 100 100 100 100 100 100 100 100 100 100 100 100 100 100 100 100 100 100 100 100 100 100 100 100 100 100 100 100 100 100 100 100 100 100 100 100
100 100 100 100 100 100 100 100 100 100 100 100 100 100 100 100 100 100 100 100 100 100 100 100 100 100 100 100 100 100 100 100 100 100 100 100 100 100 100 100 100 100 100 100

GFSCGP_prec_cloud_063.txt.gz
Cloud_Cover
5 5 6 5 2 3 0 0 0 0 0 0 0 1 0 0 1 3 5 0 0 0 0 0 0 0 0 0 0 0 15 48 27 31 100 100 100 100 100 100 100 100 100 100
5 11 5 5 5 4 5 4 5 5 0 0 0 4 2 0 3 5 3 6 5 0 0 0 0 0 0 0 0 0 0 48 25 1 72 73 93 100 100 100 93 100 100 100
26 44 10 17 5 5 5 5 5 0 0 0 0 5 38 8 0 3 41 21 4 0 0 0 0 0 0 0 0 0 0 30 28 2 1 32 100 100 100 100 100 100 100 100
10 67 96 100 98 22 5 5 0 2 2 0 0 10 100 100 90 85 54 5 4 0 0 0 0 0 0 0 0 0 4 16 15 0 1 16 100 100 93 100 100 100 100 100
87 68 49 90 100 90 35 10 5 5 5 0 0 0 95 100 100 100 86 17 4 0 0 0 0 0 0 0 0 0 1 17 11 1 0 6 100 100 100 100 100 100 100 100
100 100 100 66 100 97 86 98 70 5 5 0 2 5 95 33 45 99 100 100 64 0 0 0 0 0 0 0 0 0 19 14 6 3 6 0 96 100 96 100 95 38 100 100
100 100 100 100 100 100 100 100 100 48 5 2 0 0 97 100 18 25 100 100 93 1 0 0 0 0 0 0 0 17 49 75 22 0 23 42 100 97 16 45 28 20 99 100
100 100 100 100 100 100 100 100 97 67 67 32 5 1 97 100 100 3 6 5 30 29 0 0 0 0 0 0 0 3 84 71 50 47 38 28 42 95 55 100 0 36 100 100
100 100 100 100 100 100 100 100 99 35 6 5 0 4 5 99 100 100 6 5 3 5 15 0 0 0 0 0 0 2 50 99 26 100 100 100 100 100 100 71 51 100 100 100
100 14 88 100 100 100 100 100 100 100 98 30 0 0 0 12 100 100 100 26 5 25 0 1 0 0 0 0 0 2 50 96 39 56 100 64 99 100 100 97 100 100 100 100
100 100 9 5 50 100 100 100 100 100 88 20 1 0 13 99 100 100 100 100 5 62 0 0 0 0 0 0 7 63 100 94 24 39 57 38 98 99 49 63 36 100 100 100
100 100 32 39 46 84 7 6 26 5 5 43 5 5 100 100 100 100 100 100 92 5 4 0 0 3 5 0 27 59 79 42 6 9 32 6 97 100 89 58 90 100 100 100
100 100 57 9 6 49 74 63 100 100 100 68 4 0 100 5 71 100 100 95 92 98 76 16 17 5 0 0 2 36 75 44 39 8 6 5 56 100 96 75 98 100 100 100
100 100 100 5 5 5 5 61 66 93 94 2 2 26 100 100 100 100 48 72 100 100 100 98 10 4 0 1 18 8 5 11 89 100 80 13 65 100 100 86 99 100 100 100
100 100 100 100 100 79 99 30 100 100 4 93 4 1 97 100 100 100 100 100 67 29 15 6 4 4 5 34 9 33 99 100 100 100 78 87 100 100 100 100 100 100 100 100
100 72 94 92 100 100 100 100 99 6 22 96 5 4 100 100 86 37 36 10 15 31 5 5 5 5 5 5 38 100 57 58 92 100 100 100 100 100 100 100 100 100 100 100
100 100 100 100 69 99 100 30 23 73 26 42 5 29 100 100 100 100 100 72 86 28 59 56 38 17 22 22 21 82 58 53 62 100 100 100 100 100 100 100 100 100 100 100
100 100 100 100 55 100 15 5 6 11 6 82 63 65 100 100 96 85 100 100 100 100 100 100 100 98 100 98 50 40 66 90 100 100 100 100 100 100 100 100 100 100 100 100
100 100 100 100 100 99 95 19 96 98 41 98 99 100 100 100 100 100 100 100 100 100 100 100 100 100 100 100 100 100 100 100 100 100 100 100 100 100 100 100 100 100 100 100
100 100 100 100 100 100 62 4 15 100 53 100 85 70 100 100 100 100 100 100 100 100 100 100 100 100 100 100 100 100 100 100 100 99 100 100 100 100 100 100 100 100 100 100
100 100 100 100 100 100 100 94 100 100 49 98 99 90 60 38 81 99 100 100 100 100 100 100 100 100 100 100 100 100 100 100 100 100 100 100 100 100 98 85 57 99 100 100
100 99 100 100 100 100 97 100 100 97 100 100 88 100 75 8 51 99 100 100 100 100 100 100 100 100 100 100 100 100 100 100 100 100 100 100 100 100 100 100 100 93 100 100
95 100 96 100 100 100 100 100 100 100 100 100 100 98 40 100 99 62 94 99 96 100 100 100 100 100 100 100 100 100 100 100 100 100 100 100 100 100 100 100 100 100 100 100
99 33 100 90 8 86 100 100 97 100 100 100 100 100 42 48 63 95 100 100 100 63 99 71 100 100 100 100 100 100 100 99 99 99 100 100 91 100 100 100 100 100 100 100
5 85 100 65 5 66 85 94 100 100 100 100 100 100 100 93 92 100 100 100 98 100 80 81 95 96 99 100 100 100 100 100 100 100 100 100 100 100 100 100 100 100 100 100
29 6 25 5 78 99 56 100 100 100 95 99 100 100 100 100 100 100 89 98 100 100 100 100 100 100 100 100 100 100 100 100 100 100 100 100 100 100 100 100 100 100 100 100

GFSCGP_prec_cloud_066.txt.gz
Cloud_Cover
99 100 100 64 5 5 5 0 0 0 0 0 0 0 0 0 0 0 0 0 0 0 0 0 0 0 0 0 0 0 0 0 0 0 0 0 33 99 100 100 100 100 100 96
44 66 82 13 5 5 5 5 3 0 0 0 0 0 0 0 5 5 2 5 0 0 0 0 0 0 0 0 0 0 0 0 0 0 0 0 68 100 99 95 100 100 100 100
56 64 10 24 5 5 5 5 5 2 0 0 0 0 0 2 6 12 66 31 2 0 0 0 0 0 0 0 0 0 0 0 0 0 0 3 48 69 100 99 100 100 100 100
28 58 26 16 5 5 38 8 5 2 0 0 0 1 5 5 5 83 61 5 5 0 0 0 0 0 0 0 0 0 0 0 0 0 0 0 0 27 49 94 100 100 100 100
79 53 5 5 22 4 5 5 5 5 3 0 0 0 99 98 98 100 9 5 4 0 0 0 0 0 0 0 0 0 0 0 0 0 0 0 0 0 19 97 100 100 100 100
100 100 100 100 100 27 5 5 9 12 5 3 4 0 98 100 100 100 98 88 8 0 1 5 0 0 0 0 0 0 0 0 0 0 0 0 0 17 6 94 95 100 100 100
100 100 100 100 100 100 100 76 20 9 5 0 0 0 96 100 100 100 100 100 42 24 5 5 1 0 0 0 0 0 0 0 0 0 0 0 0 29 0 51 81 91 100 100
100 100 100 100 100 100 100 100 89 5 12 5 0 0 21 96 100 100 100 100 100 80 25 5 1 0 0 0 0 0 0 0 0 0 0 0 16 50 11 46 100 100 100 100
100 100 100 100 100 100 100 100 100 53 5 4 0 0 5 100 100 88 100 100 98 100 28 5 3 0 0 0 0 2 5 5 0 0 1 0 16 12 0 20 100 100 100 98
100 63 100 100 96 100 100 100 100 96 14 7 3 4 1 100 100 100 100 100 93 6 5 0 2 1 0 0 0 0 0 0 1 3 0 0 0 0 4 33 100 79 46 26
100 99 12 21 15 96 100 65 100 100 89 14 1 0 5 100 100 100 99 100 65 19 5 0 1 0 0 0 0 0 0 0 1 0 12 28 0 0 3 7 30 90 100 71
100 97 30 12 54 88 100 87 99 34 4 45 66 0 0 39 91 18 95 99 100 64 5 5 4 2 3 0 0 0 0 0 0 0 6 23 27 50 88 100 100 100 100 100
100 100 80 51 6 5 6 12 97 100 100 27 5 0 61 2 8 99 65 72 23 82 100 72 6 52 30 5 0 0 1 0 17 0 2 4 10 63 38 45 97 100 66 100
100 100 35 19 24 71 5 5 57 100 100 1 1 0 11 5 94 100 100 97 5 5 22 94 6 5 0 5 6 5 5 3 4 5 5 25 42 52 98 100 100 100 100 100
100 100 90 12 15 78 41 35 42 94 5 19 0 1 5 100 100 100 100 100 2 5 4 5 8 5 5 8 83 19 5 5 5 4 4 5 45 100 100 100 100 100 100 100
100 97 95 98 74 100 100 42 5 4 5 80 4 5 95 100 79 40 41 5 5 5 2 3 5 15 41 5 14 5 72 73 7 35 100 100 100 100 100 100 100 100 100 100
100 100 100 95 41 100 100 32 78 75 6 12 65 3 96 98 100 100 5 5 5 5 5 5 5 6 53 39 16 27 5 11 6 5 49 100 100 100 100 100 100 100 100 100
100 100 100 100 100 100 94 5 9 12 5 50 74 66 100 93 100 16 7 30 66 86 40 25 51 62 89 99 100 95 73 97 100 100 100 100 100 100 100 100 100 100 100 100
44 100 100 100 100 99 91 72 5 93 7 15 26 8 95 100 100 100 100 96 34 37 97 96 40 51 91 87 98 100 100 100 100 100 100 100 88 100 100 100 100 100 100 100
96 99 100 100 100 100 6 33 25 100 75 70 97 80 53 98 21 63 100 100 100 100 100 100 100 100 100 100 100 100 100 100 100 100 100 100 100 100 100 100 100 100 100 100
100 100 100 100 100 99 21 100 100 100 100 96 66 100 100 95 74 6 100 100 100 100 100 100 100 100 100 100 100 100 100 100 100 100 100 100 100 100 100 100 100 100 100 100
38 100 100 100 100 100 39 84 100 100 100 100 100 100 100 100 100 96 33 44 67 100 93 63 15 100 100 100 100 100 100 100 100 100 100 100 100 100 100 100 100 100 100 100
51 10 5 100 82 94 96 100 100 100 100 100 100 100 100 100 100 100 62 7 7 66 54 91 81 100 79 88 100 100 100 100 100 100 100 100 100 100 100 100 100 100 100 100
0 0 3 64 10 7 100 99 100 100 100 100 100 100 100 100 100 100 100 92 100 99 65 97 32 100 100 100 100 100 100 100 100 100 100 100 100 100 100 100 100 100 100 100
2 4 51 18 4 82 81 100 73 96 90 100 96 98 100 100 100 100 100 100 100 100 100 96 100 100 100 97 89 100 100 100 100 100 100 100 99 97 89 100 100 100 100 100
0 4 38 2 0 57 93 100 100 84 100 100 83 100 98 100 100 100 100 100 100 100 100 100 100 100 99 98 100 100 95 100 100 100 100 100 100 100 100 100 100 100 100 100

GFSCGP_prec_cloud_069.txt.gz
Cloud_Cover
100 92 100 100 98 18 40 5 41 5 3 0 0 0 0 0 0 0 0 0 0 0 0 0 0 0 0 0 0 0 0 0 0 0 0 0 0 30 100 100 100 100 100 100
100 100 100 100 100 59 18 35 17 6 3 0 0 0 0 0 0 0 0 0 0 0 0 0 0 0 0 0 0 0 0 0 0 0 0 0 0 0 0 83 100 100 100 100
100 100 100 100 84 89 78 61 55 50 5 2 0 0 0 0 0 0 0 0 0 0 0 0 4 0 0 0 0 0 0 0 0 0 0 0 0 0 5 56 100 100 100 100
99 100 100 100 100 100 100 77 15 5 5 4 0 0 0 0 0 0 0 0 5 0 0 0 0 0 0 0 0 0 0 0 0 0 0 0 0 0 0 0 95 100 100 100
85 100 100 100 88 15 5 5 5 5 2 0 0 0 5 5 0 3 0 2 2 0 0 0 0 0 0 0 0 0 0 0 0 0 0 0 0 0 0 0 44 100 100 100
17 17 29 42 71 6 5 5 5 5 3 0 1 0 36 57 81 36 6 19 5 0 1 0 0 0 0 0 0 0 0 0 0 0 0 0 0 0 0 0 67 97 98 100
100 88 81 47 43 43 6 5 5 5 4 0 0 0 52 10 89 100 100 100 32 6 5 2 0 4 5 1 0 0 0 0 0 0 0 0 0 0 0 0 41 90 99 100
100 100 100 100 100 100 96 15 4 0 5 2 0 1 93 10 56 100 100 100 100 100 82 50 24 5 24 5 1 0 0 0 0 0 0 0 5 5 5 0 1 43 46 100
100 100 100 100 100 100 100 100 100 37 5 5 0 1 5 93 100 49 94 100 100 100 100 100 100 100 5 5 1 0 0 0 0 0 0 1 0 0 0 0 0 14 0 37
97 42 83 100 100 100 100 100 100 100 97 93 5 12 5 100 53 100 53 52 90 100 100 100 100 100 78 4 0 0 0 0 0 2 0 0 0 0 0 0 22 54 0 80
100 85 39 32 31 100 100 100 98 100 90 83 44 24 100 100 99 100 64 51 8 15 75 96 100 83 74 6 5 0 0 0 0 5 3 4 4 5 2 1 0 27 5 43
100 62 40 10 66 5 5 9 99 31 3 31 25 0 99 100 100 92 9 6 40 5 5 5 3 5 0 0 0 0 0 0 0 3 5 40 98 10 5 17 6 0 10 30
97 65 78 24 11 6 20 5 100 100 100 43 4 0 100 5 5 64 46 90 29 5 5 2 0 0 0 0 0 0 0 0 0 0 3 54 53 10 5 5 5 5 17 57
100 100 44 17 54 99 34 34 92 100 100 13 24 0 25 53 8 39 100 55 5 2 4 3 18 33 5 0 0 0 0 2 4 0 5 5 5 54 6 5 28 23 5 5
100 100 100 75 49 66 100 100 100 100 11 98 2 19 5 100 100 100 9 14 5 4 66 97 6 9 57 5 3 0 3 5 5 5 5 5 6 8 67 92 36 6 5 25
100 69 82 55 46 93 100 62 16 5 13 84 18 5 90 100 100 12 66 32 5 5 5 5 5 5 15 4 3 5 63 50 9 7 10 55 88 100 57 48 82 72 96 100
100 100 100 90 22 100 100 6 17 5 12 36 67 9 100 100 100 86 49 28 5 10 1 5 5 5 9 75 16 5 5 5 77 76 73 90 96 100 100 100 100 100 100 100
87 100 100 90 30 100 24 0 2 64 87 64 96 30 72 79 100 92 83 100 96 21 3 4 5 16 6 21 5 41 23 8 29 76 92 82 100 97 100 100 100 100 100 100
100 100 100 100 96 75 78 0 1 44 17 93 100 64 12 100 61 7 100 100 100 68 5 0 18 85 86 96 65 94 87 78 69 67 64 81 100 98 100 100 100 100 100 100
61 100 100 100 95 91 64 99 88 100 67 62 100 91 93 5 61 5 45 6 5 5 5 26 99 24 9 5 5 40 100 98 99 100 100 100 100 100 100 100 100 100 100 100
88 100 100 100 100 100 86 96 68 78 96 71 99 78 100 66 66 32 13 5 20 77 50 5 72 54 46 39 96 100 100 91 100 100 100 100 100 100 100 100 100 100 100 100
0 9 4 10 82 75 3 13 96 86 65 87 100 100 100 100 100 100 89 72 39 94 100 92 73 99 97 80 79 26 96 100 100 100 100 100 100 86 100 100 100 100 100 100
3 0 0 2 3 90 99 55 100 96 100 100 100 100 99 94 64 83 50 75 97 100 100 100 100 100 100 99 92 83 100 100 100 100 100 100 100 100 100 100 100 100 100 100
0 0 1 0 0 0 0 76 98 100 99 87 100 100 100 24 98 70 100 100 57 100 100 100 100 100 100 100 100 100 100 100 100 100 90 93 100 100 100 100 100 100 100 100
14 48 5 5 0 0 0 0 0 70 96 98 100 100 100 100 85 80 100 100 100 100 100 100 100 100 100 100 100 100 98 100 100 100 93 94 100 100 100 97 100 100 100 100
0 2 19 2 0 0 0 0 4 4 2 7 72 100 100 100 100 91 100 100 100 83 100 97 100 100 92 82 82 94 100 89 97 100 100 100 97 100 100 100 100 100 100 100